Time,TemperatureF,DewpointF,PressureIn,WindDirection,WindDirectionDegrees,WindSpeedMPH,WindSpeedGustMPH,Humidity,HourlyPrecipIn,Conditions,Clouds,dailyrainin,SolarRadiationWatts/m^2,SoftwareType,DateUTC
2013-05-09 00:01:00,66.4,46.6,29.96,WNW,285,2.0,6.0,49,0.00,,,0.00,0,WeatherHawk,2013-05-09 07:01:00,
2013-05-09 00:02:00,66.4,46.6,29.96,WNW,285,2.0,6.0,49,0.00,,,0.00,0,WeatherHawk,2013-05-09 07:02:00,
2013-05-09 00:06:00,66.2,47.0,29.96,WNW,282,2.0,6.0,50,0.00,,,0.00,0,WeatherHawk,2013-05-09 07:06:00,
2013-05-09 00:07:00,66.2,47.0,29.96,WNW,282,2.0,6.0,50,0.00,,,0.00,0,WeatherHawk,2013-05-09 07:07:00,
2013-05-09 00:08:00,66.0,46.8,29.96,WSW,252,2.0,0.0,50,0.00,,,0.00,0,WeatherHawk,2013-05-09 07:08:00,
2013-05-09 00:10:00,66.0,46.8,29.96,WSW,243,2.0,0.0,50,0.00,,,0.00,0,WeatherHawk,2013-05-09 07:10:00,
2013-05-09 00:11:00,66.0,46.8,29.96,WSW,255,2.0,0.0,50,0.00,,,0.00,0,WeatherHawk,2013-05-09 07:11:00,
2013-05-09 00:12:00,66.0,46.8,29.96,WSW,255,2.0,-999.0,50,0.00,,,0.00,0,WeatherHawk,2013-05-09 07:12:00,
2013-05-09 00:17:00,65.8,46.7,29.96,West,279,2.0,0.0,50,0.00,,,0.00,0,WeatherHawk,2013-05-09 07:17:00,
2013-05-09 00:19:00,65.8,47.2,29.96,West,259,3.0,0.0,51,0.00,,,0.00,0,WeatherHawk,2013-05-09 07:19:00,
2013-05-09 00:22:00,65.7,47.0,29.96,West,262,2.0,4.0,51,0.00,,,0.00,0,WeatherHawk,2013-05-09 07:22:00,
2013-05-09 00:25:00,65.7,46.5,29.96,NNW,329,2.0,4.0,50,0.00,,,0.00,0,WeatherHawk,2013-05-09 07:25:00,
2013-05-09 00:27:00,65.7,47.0,29.96,NW,309,3.0,-999.0,51,0.00,,,0.00,0,WeatherHawk,2013-05-09 07:27:00,
2013-05-09 00:31:00,65.7,46.5,29.96,NW,314,3.0,0.0,50,0.00,,,0.00,0,WeatherHawk,2013-05-09 07:31:00,
2013-05-09 00:32:00,65.7,47.0,29.96,NW,313,3.0,0.0,51,0.00,,,0.00,0,WeatherHawk,2013-05-09 07:32:00,
2013-05-09 00:33:00,65.7,47.0,29.96,NW,307,3.0,0.0,51,0.00,,,0.00,0,WeatherHawk,2013-05-09 07:33:00,
2013-05-09 00:36:00,65.5,46.9,29.96,WNW,293,3.0,0.0,51,0.00,,,0.00,0,WeatherHawk,2013-05-09 07:36:00,
2013-05-09 00:37:00,65.5,46.9,29.96,WNW,293,3.0,0.0,51,0.00,,,0.00,0,WeatherHawk,2013-05-09 07:37:00,
2013-05-09 00:39:00,65.3,46.7,29.96,West,276,2.0,5.0,51,0.00,,,0.00,0,WeatherHawk,2013-05-09 07:39:00,
2013-05-09 00:42:00,65.1,47.1,29.96,WSW,255,3.0,5.0,52,0.00,,,0.00,0,WeatherHawk,2013-05-09 07:42:00,
2013-05-09 00:43:00,65.1,47.1,29.96,West,262,2.0,5.0,52,0.00,,,0.00,0,WeatherHawk,2013-05-09 07:43:00,
2013-05-09 00:44:00,65.1,47.1,29.96,West,266,2.0,5.0,52,0.00,,,0.00,0,WeatherHawk,2013-05-09 07:44:00,
2013-05-09 00:45:00,64.9,46.9,29.96,West,271,2.0,5.0,52,0.00,,,0.00,0,WeatherHawk,2013-05-09 07:45:00,
2013-05-09 00:47:00,64.9,46.9,29.96,West,273,2.0,5.0,52,0.00,,,0.00,1,WeatherHawk,2013-05-09 07:47:00,
2013-05-09 00:50:00,64.8,46.7,29.96,West,262,3.0,0.0,52,0.00,,,0.00,0,WeatherHawk,2013-05-09 07:50:00,
2013-05-09 00:51:00,64.8,46.7,29.96,WSW,254,3.0,0.0,52,0.00,,,0.00,0,WeatherHawk,2013-05-09 07:51:00,
2013-05-09 00:52:00,64.8,46.7,29.96,West,260,2.0,0.0,52,0.00,,,0.00,0,WeatherHawk,2013-05-09 07:52:00,
2013-05-09 00:57:00,64.6,46.6,29.96,West,276,2.0,0.0,52,0.00,,,0.00,0,WeatherHawk,2013-05-09 07:57:00,
2013-05-09 00:58:00,64.6,46.6,29.96,WNW,283,2.0,0.0,52,0.00,,,0.00,0,WeatherHawk,2013-05-09 07:58:00,
2013-05-09 01:00:00,64.6,46.6,29.96,NW,306,2.0,0.0,52,0.00,,,0.00,0,WeatherHawk,2013-05-09 08:00:00,
2013-05-09 01:02:00,64.6,47.1,29.96,NW,318,2.0,0.0,53,0.00,,,0.00,0,WeatherHawk,2013-05-09 08:02:00,
2013-05-09 01:05:00,64.6,47.1,29.96,NW,315,3.0,0.0,53,0.00,,,0.00,0,WeatherHawk,2013-05-09 08:05:00,
2013-05-09 01:06:00,64.6,47.1,29.96,NW,326,2.0,0.0,53,0.00,,,0.00,0,WeatherHawk,2013-05-09 08:06:00,
2013-05-09 01:07:00,64.6,47.1,29.96,NW,326,2.0,0.0,53,0.00,,,0.00,0,WeatherHawk,2013-05-09 08:07:00,
2013-05-09 01:11:00,64.4,46.4,29.96,NW,316,2.0,0.0,52,0.00,,,0.00,0,WeatherHawk,2013-05-09 08:11:00,
2013-05-09 01:12:00,64.4,46.9,29.96,NW,317,2.0,0.0,53,0.00,,,0.00,0,WeatherHawk,2013-05-09 08:12:00,
2013-05-09 01:15:00,64.4,46.4,29.95,NNW,328,5.0,0.0,52,0.00,,,0.00,0,WeatherHawk,2013-05-09 08:15:00,
2013-05-09 01:17:00,64.8,46.2,29.95,NW,314,6.0,-999.0,51,0.00,,,0.00,0,WeatherHawk,2013-05-09 08:17:00,
2013-05-09 01:18:00,64.8,46.2,29.95,NW,319,5.0,0.0,51,0.00,,,0.00,0,WeatherHawk,2013-05-09 08:18:00,
2013-05-09 01:22:00,64.9,45.8,29.95,NW,326,5.0,0.0,50,0.00,,,0.00,0,WeatherHawk,2013-05-09 08:22:00,
2013-05-09 01:25:00,64.8,46.2,29.95,NW,322,5.0,0.0,51,0.00,,,0.00,0,WeatherHawk,2013-05-09 08:25:00,
2013-05-09 01:27:00,64.8,46.2,29.95,NW,321,6.0,0.0,51,0.00,,,0.00,0,WeatherHawk,2013-05-09 08:27:00,
2013-05-09 01:30:00,64.2,46.2,29.95,NW,316,5.0,0.0,52,0.00,,,0.00,0,WeatherHawk,2013-05-09 08:30:00,
2013-05-09 01:32:00,64.2,46.2,29.95,NW,313,4.0,7.0,52,0.00,,,0.00,0,WeatherHawk,2013-05-09 08:32:00,
2013-05-09 01:33:00,64.0,46.1,29.95,NW,321,4.0,7.0,52,0.00,,,0.00,0,WeatherHawk,2013-05-09 08:33:00,
2013-05-09 01:35:00,63.9,45.9,29.95,NW,323,4.0,7.0,52,0.00,,,0.00,0,WeatherHawk,2013-05-09 08:35:00,
2013-05-09 01:36:00,63.9,45.9,29.95,NNW,333,4.0,7.0,52,0.00,,,0.00,1,WeatherHawk,2013-05-09 08:36:00,
2013-05-09 01:37:00,63.9,45.9,29.95,NNW,333,4.0,-999.0,52,0.00,,,0.00,1,WeatherHawk,2013-05-09 08:37:00,
2013-05-09 01:41:00,63.7,45.7,29.95,NNW,331,5.0,0.0,52,0.00,,,0.00,0,WeatherHawk,2013-05-09 08:41:00,
2013-05-09 01:42:00,63.7,45.7,29.95,NNW,331,5.0,0.0,52,0.00,,,0.00,0,WeatherHawk,2013-05-09 08:42:00,
2013-05-09 01:44:00,63.7,45.7,29.95,NW,319,6.0,0.0,52,0.00,,,0.00,0,WeatherHawk,2013-05-09 08:44:00,
2013-05-09 01:47:00,63.7,45.7,29.95,NW,314,6.0,0.0,52,0.00,,,0.00,0,WeatherHawk,2013-05-09 08:47:00,
2013-05-09 01:49:00,63.7,45.7,29.95,NW,319,6.0,0.0,52,0.00,,,0.00,0,WeatherHawk,2013-05-09 08:49:00,
2013-05-09 01:50:00,63.7,45.7,29.95,NW,314,5.0,0.0,52,0.00,,,0.00,0,WeatherHawk,2013-05-09 08:50:00,
2013-05-09 01:54:00,63.9,45.4,29.95,NNW,329,6.0,0.0,51,0.00,,,0.00,0,WeatherHawk,2013-05-09 08:54:00,
2013-05-09 01:57:00,63.7,45.7,29.95,NNW,331,5.0,0.0,52,0.00,,,0.00,0,WeatherHawk,2013-05-09 08:57:00,
2013-05-09 01:59:00,63.5,45.6,29.95,NNW,327,6.0,0.0,52,0.00,,,0.00,0,WeatherHawk,2013-05-09 08:59:00,
2013-05-09 02:02:00,63.3,45.4,29.95,NNW,330,5.0,0.0,52,0.00,,,0.00,0,WeatherHawk,2013-05-09 09:02:00,
2013-05-09 02:05:00,63.1,45.2,29.95,NNW,332,5.0,8.0,52,0.00,,,0.00,1,WeatherHawk,2013-05-09 09:05:00,
2013-05-09 02:07:00,63.1,45.2,29.95,NNW,330,5.0,8.0,52,0.00,,,0.00,0,WeatherHawk,2013-05-09 09:07:00,
2013-05-09 02:09:00,63.0,45.6,29.95,NNW,330,4.0,0.0,53,0.00,,,0.00,0,WeatherHawk,2013-05-09 09:09:00,
2013-05-09 02:12:00,63.0,45.6,29.95,NNW,330,6.0,7.0,53,0.00,,,0.00,0,WeatherHawk,2013-05-09 09:12:00,
2013-05-09 02:13:00,62.8,45.4,29.95,NNW,340,6.0,7.0,53,0.00,,,0.00,0,WeatherHawk,2013-05-09 09:13:00,
2013-05-09 02:15:00,62.8,45.4,29.95,NNW,341,5.0,7.0,53,0.00,,,0.00,0,WeatherHawk,2013-05-09 09:15:00,
2013-05-09 02:17:00,62.8,45.4,29.95,NNW,341,5.0,-999.0,53,0.00,,,0.00,0,WeatherHawk,2013-05-09 09:17:00,
2013-05-09 02:18:00,62.6,45.2,29.95,NNW,341,4.0,0.0,53,0.00,,,0.00,0,WeatherHawk,2013-05-09 09:18:00,
2013-05-09 02:21:00,62.6,45.2,29.95,NNW,338,4.0,0.0,53,0.00,,,0.00,0,WeatherHawk,2013-05-09 09:21:00,
2013-05-09 02:22:00,62.6,45.2,29.95,NNW,338,4.0,-999.0,53,0.00,,,0.00,0,WeatherHawk,2013-05-09 09:22:00,
2013-05-09 02:27:00,62.4,45.1,29.94,NNW,330,2.0,0.0,53,0.00,,,0.00,0,WeatherHawk,2013-05-09 09:27:00,
2013-05-09 02:30:00,62.4,45.6,29.94,NW,315,5.0,0.0,54,0.00,,,0.00,0,WeatherHawk,2013-05-09 09:30:00,
2013-05-09 02:31:00,62.2,45.4,29.94,NW,309,2.0,6.0,54,0.00,,,0.00,0,WeatherHawk,2013-05-09 09:31:00,
2013-05-09 02:33:00,62.2,45.4,29.94,WNW,303,2.0,6.0,54,0.00,,,0.00,0,WeatherHawk,2013-05-09 09:33:00,
2013-05-09 02:34:00,62.2,45.4,29.95,NW,310,2.0,6.0,54,0.00,,,0.00,0,WeatherHawk,2013-05-09 09:34:00,
2013-05-09 02:36:00,62.1,45.2,29.95,West,277,2.0,6.0,54,0.00,,,0.00,0,WeatherHawk,2013-05-09 09:36:00,
2013-05-09 02:37:00,62.1,45.2,29.95,West,277,2.0,-999.0,54,0.00,,,0.00,0,WeatherHawk,2013-05-09 09:37:00,
2013-05-09 02:42:00,61.9,45.5,29.94,West,274,2.0,0.0,55,0.00,,,0.00,0,WeatherHawk,2013-05-09 09:42:00,
2013-05-09 02:44:00,61.9,45.5,29.95,NW,315,2.0,0.0,55,0.00,,,0.00,1,WeatherHawk,2013-05-09 09:44:00,
2013-05-09 02:45:00,61.9,45.5,29.95,WNW,301,1.0,0.0,55,0.00,,,0.00,0,WeatherHawk,2013-05-09 09:45:00,
2013-05-09 02:47:00,61.9,45.5,29.95,West,281,1.0,0.0,55,0.00,,,0.00,0,WeatherHawk,2013-05-09 09:47:00,
2013-05-09 02:52:00,62.1,45.2,29.95,West,277,6.0,0.0,54,0.00,,,0.00,0,WeatherHawk,2013-05-09 09:52:00,
2013-05-09 02:54:00,62.4,45.6,29.95,West,276,5.0,0.0,54,0.00,,,0.00,0,WeatherHawk,2013-05-09 09:54:00,
2013-05-09 02:56:00,62.6,45.2,29.95,WNW,295,5.0,0.0,53,0.00,,,0.00,0,WeatherHawk,2013-05-09 09:56:00,
2013-05-09 02:57:00,62.6,45.2,29.95,WNW,295,5.0,0.0,53,0.00,,,0.00,0,WeatherHawk,2013-05-09 09:57:00,
2013-05-09 03:00:00,62.6,45.2,29.95,WNW,284,5.0,0.0,53,0.00,,,0.00,0,WeatherHawk,2013-05-09 10:00:00,
2013-05-09 03:02:00,62.4,45.6,29.95,WNW,292,5.0,9.0,54,0.00,,,0.00,0,WeatherHawk,2013-05-09 10:02:00,
2013-05-09 03:05:00,62.2,45.4,29.95,WSW,257,4.0,9.0,54,0.00,,,0.00,0,WeatherHawk,2013-05-09 10:05:00,
2013-05-09 03:07:00,62.2,45.4,29.95,WSW,253,4.0,9.0,54,0.00,,,0.00,0,WeatherHawk,2013-05-09 10:07:00,
2013-05-09 03:09:00,62.1,45.2,29.95,West,262,4.0,0.0,54,0.00,,,0.00,1,WeatherHawk,2013-05-09 10:09:00,
2013-05-09 03:12:00,61.9,45.0,29.95,SW,231,4.0,0.0,54,0.00,,,0.00,1,WeatherHawk,2013-05-09 10:12:00,
2013-05-09 03:13:00,61.9,45.0,29.95,WSW,243,5.0,0.0,54,0.00,,,0.00,0,WeatherHawk,2013-05-09 10:13:00,
2013-05-09 03:14:00,61.9,45.0,29.95,SW,235,5.0,0.0,54,0.00,,,0.00,0,WeatherHawk,2013-05-09 10:14:00,
2013-05-09 03:16:00,61.9,45.0,29.95,SW,233,4.0,0.0,54,0.00,,,0.00,0,WeatherHawk,2013-05-09 10:16:00,
2013-05-09 03:19:00,62.1,45.2,29.95,SW,236,4.0,0.0,54,0.00,,,0.00,0,WeatherHawk,2013-05-09 10:19:00,
2013-05-09 03:21:00,62.2,44.9,29.95,WSW,240,5.0,0.0,53,0.00,,,0.00,0,WeatherHawk,2013-05-09 10:21:00,
2013-05-09 03:22:00,62.2,44.9,29.95,WSW,240,5.0,0.0,53,0.00,,,0.00,0,WeatherHawk,2013-05-09 10:22:00,
2013-05-09 03:27:00,62.1,45.2,29.95,West,263,4.0,0.0,54,0.00,,,0.00,0,WeatherHawk,2013-05-09 10:27:00,
2013-05-09 03:28:00,62.1,45.2,29.95,West,267,6.0,0.0,54,0.00,,,0.00,0,WeatherHawk,2013-05-09 10:28:00,
2013-05-09 03:30:00,62.1,45.2,29.95,West,259,5.0,0.0,54,0.00,,,0.00,1,WeatherHawk,2013-05-09 10:30:00,
2013-05-09 03:32:00,61.9,45.0,29.95,West,278,4.0,0.0,54,0.00,,,0.00,0,WeatherHawk,2013-05-09 10:32:00,
2013-05-09 03:33:00,61.9,45.0,29.95,West,273,4.0,0.0,54,0.00,,,0.00,0,WeatherHawk,2013-05-09 10:33:00,
2013-05-09 03:36:00,61.7,45.4,29.95,West,271,4.0,0.0,55,0.00,,,0.00,0,WeatherHawk,2013-05-09 10:36:00,
2013-05-09 03:37:00,61.7,44.9,29.95,West,277,6.0,0.0,54,0.00,,,0.00,0,WeatherHawk,2013-05-09 10:37:00,
2013-05-09 03:39:00,61.9,45.5,29.95,West,279,4.0,0.0,55,0.00,,,0.00,0,WeatherHawk,2013-05-09 10:39:00,
2013-05-09 03:40:00,61.7,45.4,29.95,WNW,283,4.0,0.0,55,0.00,,,0.00,0,WeatherHawk,2013-05-09 10:40:00,
2013-05-09 03:42:00,61.5,45.7,29.95,WNW,292,4.0,0.0,56,0.00,,,0.00,0,WeatherHawk,2013-05-09 10:42:00,
2013-05-09 03:45:00,61.3,45.5,29.95,West,278,4.0,0.0,56,0.00,,,0.00,0,WeatherHawk,2013-05-09 10:45:00,
2013-05-09 03:46:00,61.3,45.5,29.95,West,278,4.0,0.0,56,0.00,,,0.00,0,WeatherHawk,2013-05-09 10:46:00,
2013-05-09 03:47:00,61.3,45.5,29.95,West,278,4.0,0.0,56,0.00,,,0.00,0,WeatherHawk,2013-05-09 10:47:00,
2013-05-09 03:48:00,61.2,45.8,29.95,West,277,4.0,0.0,57,0.00,,,0.00,0,WeatherHawk,2013-05-09 10:48:00,
2013-05-09 03:50:00,61.0,45.6,29.95,West,277,3.0,0.0,57,0.00,,,0.00,0,WeatherHawk,2013-05-09 10:50:00,
2013-05-09 03:54:00,60.8,45.9,29.95,West,278,3.0,0.0,58,0.00,,,0.00,0,WeatherHawk,2013-05-09 10:54:00,
2013-05-09 03:57:00,60.8,45.9,29.95,West,275,3.0,-999.0,58,0.00,,,0.00,0,WeatherHawk,2013-05-09 10:57:00,
2013-05-09 03:58:00,60.6,45.8,29.95,West,271,2.0,0.0,58,0.00,,,0.00,0,WeatherHawk,2013-05-09 10:58:00,
2013-05-09 04:00:00,60.6,45.8,29.95,West,263,2.0,0.0,58,0.00,,,0.00,0,WeatherHawk,2013-05-09 11:00:00,
2013-05-09 04:02:00,60.6,45.8,29.95,WSW,252,2.0,-999.0,58,0.00,,,0.00,1,WeatherHawk,2013-05-09 11:02:00,
2013-05-09 04:03:00,60.4,45.6,29.95,SW,234,2.0,0.0,58,0.00,,,0.00,0,WeatherHawk,2013-05-09 11:03:00,
2013-05-09 04:07:00,60.4,45.1,29.95,SSW,201,2.0,0.0,57,0.00,,,0.00,0,WeatherHawk,2013-05-09 11:07:00,
2013-05-09 04:09:00,60.6,45.3,29.95,SSW,201,2.0,0.0,57,0.00,,,0.00,0,WeatherHawk,2013-05-09 11:09:00,
2013-05-09 04:11:00,60.6,45.3,29.95,South,182,2.0,0.0,57,0.00,,,0.00,0,WeatherHawk,2013-05-09 11:11:00,
2013-05-09 04:13:00,60.8,45.5,29.95,South,185,2.0,0.0,57,0.00,,,0.00,0,WeatherHawk,2013-05-09 11:13:00,
2013-05-09 04:14:00,60.8,45.0,29.95,South,183,2.0,0.0,56,0.00,,,0.00,0,WeatherHawk,2013-05-09 11:14:00,
2013-05-09 04:17:00,60.8,45.0,29.95,South,183,2.0,0.0,56,0.00,,,0.00,0,WeatherHawk,2013-05-09 11:17:00,
2013-05-09 04:19:00,61.2,44.9,29.95,South,169,2.0,0.0,55,0.00,,,0.00,0,WeatherHawk,2013-05-09 11:19:00,
2013-05-09 04:21:00,61.0,44.7,29.95,SSE,150,2.0,0.0,55,0.00,,,0.00,0,WeatherHawk,2013-05-09 11:21:00,
2013-05-09 04:22:00,61.0,44.7,29.95,SSE,150,2.0,0.0,55,0.00,,,0.00,0,WeatherHawk,2013-05-09 11:22:00,
2013-05-09 04:24:00,60.6,44.8,29.95,ESE,106,1.0,0.0,56,0.00,,,0.00,1,WeatherHawk,2013-05-09 11:24:00,
2013-05-09 04:27:00,60.6,44.8,29.95,ESE,114,1.0,0.0,56,0.00,,,0.00,0,WeatherHawk,2013-05-09 11:27:00,
2013-05-09 04:28:00,60.4,44.7,29.95,SW,236,0.0,0.0,56,0.00,,,0.00,0,WeatherHawk,2013-05-09 11:28:00,
2013-05-09 04:32:00,60.3,44.5,29.95,NNW,336,2.0,0.0,56,0.00,,,0.00,0,WeatherHawk,2013-05-09 11:32:00,
2013-05-09 04:35:00,60.6,44.4,29.95,NNW,335,2.0,0.0,55,0.00,,,0.00,0,WeatherHawk,2013-05-09 11:35:00,
2013-05-09 04:37:00,60.6,44.4,29.95,NNW,335,2.0,0.0,55,0.00,,,0.00,0,WeatherHawk,2013-05-09 11:37:00,
2013-05-09 04:41:00,60.6,44.4,29.95,WNW,292,1.0,0.0,55,0.00,,,0.00,0,WeatherHawk,2013-05-09 11:41:00,
2013-05-09 04:42:00,60.6,44.4,29.95,WNW,292,1.0,0.0,55,0.00,,,0.00,0,WeatherHawk,2013-05-09 11:42:00,
2013-05-09 04:45:00,60.6,44.8,29.95,NW,315,2.0,0.0,56,0.00,,,0.00,0,WeatherHawk,2013-05-09 11:45:00,
2013-05-09 04:47:00,60.8,44.5,29.95,NW,315,1.0,0.0,55,0.00,,,0.00,0,WeatherHawk,2013-05-09 11:47:00,
2013-05-09 04:49:00,60.6,44.4,29.95,ENE,69,2.0,0.0,55,0.00,,,0.00,0,WeatherHawk,2013-05-09 11:49:00,
2013-05-09 04:50:00,60.6,44.4,29.95,ENE,57,1.0,0.0,55,0.00,,,0.00,1,WeatherHawk,2013-05-09 11:50:00,
2013-05-09 04:52:00,60.6,44.4,29.95,ENE,58,1.0,0.0,55,0.00,,,0.00,0,WeatherHawk,2013-05-09 11:52:00,
2013-05-09 04:56:00,60.4,44.7,29.95,North,7,1.0,0.0,56,0.00,,,0.00,0,WeatherHawk,2013-05-09 11:56:00,
2013-05-09 04:57:00,60.4,44.7,29.95,NNE,18,1.0,0.0,56,0.00,,,0.00,0,WeatherHawk,2013-05-09 11:57:00,
2013-05-09 04:58:00,60.4,44.2,29.95,NNE,15,2.0,0.0,55,0.00,,,0.00,0,WeatherHawk,2013-05-09 11:58:00,
2013-05-09 05:02:00,60.4,44.2,29.95,North,353,2.0,-999.0,55,0.00,,,0.00,0,WeatherHawk,2013-05-09 12:02:00,
2013-05-09 05:04:00,60.8,44.5,29.95,NW,322,3.0,0.0,55,0.00,,,0.00,0,WeatherHawk,2013-05-09 12:04:00,
2013-05-09 05:06:00,61.0,44.2,29.95,NNW,327,4.0,0.0,54,0.00,,,0.00,0,WeatherHawk,2013-05-09 12:06:00,
2013-05-09 05:07:00,61.0,44.2,29.95,NNW,327,4.0,0.0,54,0.00,,,0.00,0,WeatherHawk,2013-05-09 12:07:00,
2013-05-09 05:09:00,61.3,44.1,29.95,NW,319,4.0,0.0,53,0.00,,,0.00,0,WeatherHawk,2013-05-09 12:09:00,
2013-05-09 05:12:00,61.5,44.2,29.95,NW,322,4.0,0.0,53,0.00,,,0.00,0,WeatherHawk,2013-05-09 12:12:00,
2013-05-09 05:14:00,61.5,44.2,29.95,NW,312,3.0,6.0,53,0.00,,,0.00,0,WeatherHawk,2013-05-09 12:14:00,
2013-05-09 05:16:00,61.3,44.1,29.95,WNW,295,3.0,6.0,53,0.00,,,0.00,0,WeatherHawk,2013-05-09 12:16:00,
2013-05-09 05:17:00,61.3,44.1,29.95,WNW,295,3.0,-999.0,53,0.00,,,0.00,0,WeatherHawk,2013-05-09 12:17:00,
2013-05-09 05:21:00,61.3,44.5,29.96,WNW,287,1.0,0.0,54,0.00,,,0.00,0,WeatherHawk,2013-05-09 12:21:00,
2013-05-09 05:22:00,61.3,44.5,29.96,WNW,287,1.0,0.0,54,0.00,,,0.00,0,WeatherHawk,2013-05-09 12:22:00,
2013-05-09 05:23:00,61.2,44.4,29.96,WSW,247,1.0,0.0,54,0.00,,,0.00,0,WeatherHawk,2013-05-09 12:23:00,
2013-05-09 05:27:00,61.0,44.2,29.96,WSW,255,1.0,0.0,54,0.00,,,0.00,0,WeatherHawk,2013-05-09 12:27:00,
2013-05-09 05:29:00,61.0,44.2,29.96,WSW,256,2.0,0.0,54,0.00,,,0.00,0,WeatherHawk,2013-05-09 12:29:00,
2013-05-09 05:30:00,61.0,44.2,29.96,WNW,282,3.0,0.0,54,0.00,,,0.00,0,WeatherHawk,2013-05-09 12:30:00,
2013-05-09 05:32:00,61.0,44.2,29.96,WSW,258,2.0,0.0,54,0.00,,,0.00,1,WeatherHawk,2013-05-09 12:32:00,
2013-05-09 05:36:00,61.2,44.4,29.96,West,278,3.0,0.0,54,0.00,,,0.00,1,WeatherHawk,2013-05-09 12:36:00,
2013-05-09 05:37:00,61.2,44.4,29.96,West,278,3.0,0.0,54,0.00,,,0.00,1,WeatherHawk,2013-05-09 12:37:00,
2013-05-09 05:40:00,61.2,43.9,29.96,WNW,297,4.0,0.0,53,0.00,,,0.00,5,WeatherHawk,2013-05-09 12:40:00,
2013-05-09 05:42:00,61.2,43.9,29.96,WNW,283,3.0,0.0,53,0.00,,,0.00,4,WeatherHawk,2013-05-09 12:42:00,
2013-05-09 05:44:00,61.2,43.9,29.96,WNW,290,4.0,0.0,53,0.00,,,0.00,5,WeatherHawk,2013-05-09 12:44:00,
2013-05-09 05:47:00,61.2,43.9,29.96,West,278,3.0,0.0,53,0.00,,,0.00,7,WeatherHawk,2013-05-09 12:47:00,
2013-05-09 05:48:00,61.0,44.2,29.96,WNW,283,3.0,0.0,54,0.00,,,0.00,8,WeatherHawk,2013-05-09 12:48:00,
2013-05-09 05:49:00,61.0,44.2,29.96,WNW,285,4.0,0.0,54,0.00,,,0.00,9,WeatherHawk,2013-05-09 12:49:00,
2013-05-09 05:51:00,61.0,44.2,29.96,WNW,284,4.0,0.0,54,0.00,,,0.00,13,WeatherHawk,2013-05-09 12:51:00,
2013-05-09 05:52:00,61.0,44.2,29.96,WNW,284,4.0,-999.0,54,0.00,,,0.00,13,WeatherHawk,2013-05-09 12:52:00,
2013-05-09 05:53:00,60.8,44.0,29.96,WNW,293,4.0,0.0,54,0.00,,,0.00,15,WeatherHawk,2013-05-09 12:53:00,
2013-05-09 05:56:00,60.8,44.5,29.96,WNW,291,4.0,0.0,55,0.00,,,0.00,20,WeatherHawk,2013-05-09 12:56:00,
2013-05-09 05:57:00,60.8,44.5,29.96,WNW,291,4.0,-999.0,55,0.00,,,0.00,20,WeatherHawk,2013-05-09 12:57:00,
2013-05-09 06:00:00,60.8,44.5,29.95,WNW,300,4.0,0.0,55,0.00,,,0.00,30,WeatherHawk,2013-05-09 13:00:00,
2013-05-09 06:01:00,60.8,44.5,29.95,WNW,300,4.0,0.0,55,0.00,,,0.00,33,WeatherHawk,2013-05-09 13:01:00,
2013-05-09 06:02:00,60.8,44.5,29.95,WNW,300,4.0,0.0,55,0.00,,,0.00,33,WeatherHawk,2013-05-09 13:02:00,
2013-05-09 06:06:00,60.8,44.5,29.96,WNW,293,4.0,0.0,55,0.00,,,0.00,41,WeatherHawk,2013-05-09 13:06:00,
2013-05-09 06:07:00,60.8,44.5,29.96,WNW,293,4.0,-999.0,55,0.00,,,0.00,41,WeatherHawk,2013-05-09 13:07:00,
2013-05-09 06:12:00,60.6,44.4,29.96,West,280,3.0,-999.0,55,0.00,,,0.00,46,WeatherHawk,2013-05-09 13:12:00,
2013-05-09 06:13:00,60.4,44.7,29.96,West,276,3.0,0.0,56,0.00,,,0.00,60,WeatherHawk,2013-05-09 13:13:00,
2013-05-09 06:17:00,60.4,44.7,29.96,WNW,283,3.0,5.0,56,0.00,,,0.00,76,WeatherHawk,2013-05-09 13:17:00,
2013-05-09 06:18:00,60.4,44.7,29.96,West,278,3.0,0.0,56,0.00,,,0.00,79,WeatherHawk,2013-05-09 13:18:00,
2013-05-09 06:21:00,60.4,44.7,29.96,WNW,290,3.0,0.0,56,0.00,,,0.00,87,WeatherHawk,2013-05-09 13:21:00,
2013-05-09 06:23:00,60.6,44.8,29.96,WNW,285,4.0,0.0,56,0.00,,,0.00,92,WeatherHawk,2013-05-09 13:23:00,
2013-05-09 06:25:00,60.6,44.8,29.96,WNW,291,4.0,0.0,56,0.00,,,0.00,99,WeatherHawk,2013-05-09 13:25:00,
2013-05-09 06:26:00,60.6,44.8,29.96,WNW,297,3.0,0.0,56,0.00,,,0.00,103,WeatherHawk,2013-05-09 13:26:00,
2013-05-09 06:29:00,60.6,44.8,29.96,WNW,302,3.0,0.0,56,0.00,,,0.00,112,WeatherHawk,2013-05-09 13:29:00,
2013-05-09 06:31:00,60.6,45.3,29.96,NW,308,3.0,0.0,57,0.00,,,0.00,118,WeatherHawk,2013-05-09 13:31:00,
2013-05-09 06:32:00,60.6,45.3,29.96,WNW,303,4.0,0.0,57,0.00,,,0.00,124,WeatherHawk,2013-05-09 13:32:00,
2013-05-09 06:35:00,60.6,45.3,29.96,NW,311,4.0,0.0,57,0.00,,,0.00,132,WeatherHawk,2013-05-09 13:35:00,
2013-05-09 06:37:00,60.6,45.3,29.96,NW,304,3.0,0.0,57,0.00,,,0.00,140,WeatherHawk,2013-05-09 13:37:00,
2013-05-09 06:40:00,60.8,45.0,29.96,WNW,300,4.0,0.0,56,0.00,,,0.00,149,WeatherHawk,2013-05-09 13:40:00,
2013-05-09 06:42:00,60.8,45.5,29.96,WNW,299,4.0,0.0,57,0.00,,,0.00,154,WeatherHawk,2013-05-09 13:42:00,
2013-05-09 06:47:00,61.0,45.2,29.97,WNW,287,4.0,0.0,56,0.00,,,0.00,175,WeatherHawk,2013-05-09 13:47:00,
2013-05-09 06:48:00,61.2,45.3,29.97,WNW,292,4.0,0.0,56,0.00,,,0.00,176,WeatherHawk,2013-05-09 13:48:00,
2013-05-09 06:52:00,61.3,45.5,29.97,NW,304,4.0,0.0,56,0.00,,,0.00,194,WeatherHawk,2013-05-09 13:52:00,
2013-05-09 06:57:00,61.5,45.7,29.97,WNW,299,4.0,0.0,56,0.00,,,0.00,210,WeatherHawk,2013-05-09 13:57:00,
2013-05-09 06:58:00,61.5,45.7,29.97,WNW,297,4.0,0.0,56,0.00,,,0.00,214,WeatherHawk,2013-05-09 13:58:00,
2013-05-09 07:00:00,61.7,46.3,29.97,WNW,300,2.0,0.0,57,0.00,,,0.00,222,WeatherHawk,2013-05-09 14:00:00,
2013-05-09 07:02:00,61.9,46.0,29.97,WNW,300,3.0,-999.0,56,0.00,,,0.00,232,WeatherHawk,2013-05-09 14:02:00,
2013-05-09 07:04:00,61.9,46.5,29.97,NW,318,3.0,0.0,57,0.00,,,0.00,240,WeatherHawk,2013-05-09 14:04:00,
2013-05-09 07:06:00,62.1,46.2,29.97,NNW,331,2.0,0.0,56,0.00,,,0.00,245,WeatherHawk,2013-05-09 14:06:00,
2013-05-09 07:07:00,62.1,46.6,29.97,NW,317,2.0,-999.0,57,0.00,,,0.00,247,WeatherHawk,2013-05-09 14:07:00,
2013-05-09 07:08:00,62.1,46.2,29.97,NW,325,4.0,0.0,56,0.00,,,0.00,253,WeatherHawk,2013-05-09 14:08:00,
2013-05-09 07:10:00,62.2,46.3,29.97,NW,317,4.0,0.0,56,0.00,,,0.00,259,WeatherHawk,2013-05-09 14:10:00,
2013-05-09 07:12:00,62.4,46.0,29.98,NW,320,4.0,0.0,55,0.00,,,0.00,269,WeatherHawk,2013-05-09 14:12:00,
2013-05-09 07:13:00,62.4,46.0,29.98,NW,323,3.0,0.0,55,0.00,,,0.00,271,WeatherHawk,2013-05-09 14:13:00,
2013-05-09 07:15:00,62.4,46.0,29.98,NW,318,2.0,0.0,55,0.00,,,0.00,278,WeatherHawk,2013-05-09 14:15:00,
2013-05-09 07:16:00,62.6,45.7,29.98,NW,319,3.0,0.0,54,0.00,,,0.00,282,WeatherHawk,2013-05-09 14:16:00,
2013-05-09 07:17:00,62.6,45.7,29.98,NW,321,4.0,0.0,54,0.00,,,0.00,285,WeatherHawk,2013-05-09 14:17:00,
2013-05-09 07:19:00,62.8,46.4,29.98,NW,325,4.0,0.0,55,0.00,,,0.00,294,WeatherHawk,2013-05-09 14:19:00,
2013-05-09 07:21:00,63.0,46.1,29.98,NW,319,5.0,0.0,54,0.00,,,0.00,300,WeatherHawk,2013-05-09 14:21:00,
2013-05-09 07:24:00,63.1,46.7,29.98,NW,316,4.0,0.0,55,0.00,,,0.00,315,WeatherHawk,2013-05-09 14:24:00,
2013-05-09 07:26:00,63.1,46.7,29.98,NW,324,3.0,0.0,55,0.00,,,0.00,321,WeatherHawk,2013-05-09 14:26:00,
2013-05-09 07:27:00,63.3,46.9,29.98,NW,315,4.0,0.0,55,0.00,,,0.00,325,WeatherHawk,2013-05-09 14:27:00,
2013-05-09 07:29:00,63.3,46.4,29.98,NW,316,4.0,0.0,54,0.00,,,0.00,336,WeatherHawk,2013-05-09 14:29:00,
2013-05-09 07:30:00,63.3,46.4,29.98,NW,313,5.0,0.0,54,0.00,,,0.00,335,WeatherHawk,2013-05-09 14:30:00,
2013-05-09 07:32:00,63.5,46.6,29.98,NW,307,4.0,0.0,54,0.00,,,0.00,343,WeatherHawk,2013-05-09 14:32:00,
2013-05-09 07:33:00,63.5,46.6,29.98,NW,317,5.0,0.0,54,0.00,,,0.00,350,WeatherHawk,2013-05-09 14:33:00,
2013-05-09 07:37:00,63.9,46.9,29.98,NNW,334,6.0,0.0,54,0.00,,,0.00,365,WeatherHawk,2013-05-09 14:37:00,
2013-05-09 07:39:00,64.0,47.1,29.98,NNW,330,6.0,0.0,54,0.00,,,0.00,374,WeatherHawk,2013-05-09 14:39:00,
2013-05-09 07:42:00,64.2,47.2,29.98,NNW,337,6.0,-999.0,54,0.00,,,0.00,381,WeatherHawk,2013-05-09 14:42:00,
2013-05-09 07:44:00,64.2,46.7,29.98,NNW,329,6.0,0.0,53,0.00,,,0.00,388,WeatherHawk,2013-05-09 14:44:00,
2013-05-09 07:46:00,64.4,47.9,29.98,NNW,345,5.0,0.0,55,0.00,,,0.00,401,WeatherHawk,2013-05-09 14:46:00,
2013-05-09 07:47:00,64.4,47.9,29.98,NNW,345,5.0,0.0,55,0.00,,,0.00,401,WeatherHawk,2013-05-09 14:47:00,
2013-05-09 07:49:00,64.4,47.4,29.98,NW,320,7.0,0.0,54,0.00,,,0.00,411,WeatherHawk,2013-05-09 14:49:00,
2013-05-09 07:52:00,64.8,47.2,29.98,NW,326,5.0,-999.0,53,0.00,,,0.00,421,WeatherHawk,2013-05-09 14:52:00,
2013-05-09 07:57:00,65.5,47.9,29.98,NNW,341,6.0,0.0,53,0.00,,,0.00,443,WeatherHawk,2013-05-09 14:57:00,
2013-05-09 08:01:00,65.7,47.0,29.98,NW,316,7.0,0.0,51,0.00,,,0.00,458,WeatherHawk,2013-05-09 15:01:00,
2013-05-09 08:02:00,65.8,47.7,29.98,NNW,328,6.0,0.0,52,0.00,,,0.00,461,WeatherHawk,2013-05-09 15:02:00,
2013-05-09 08:07:00,66.4,47.2,29.98,NW,310,8.0,0.0,50,0.00,,,0.00,480,WeatherHawk,2013-05-09 15:07:00,
2013-05-09 08:08:00,66.7,47.0,29.98,NNW,327,6.0,0.0,49,0.00,,,0.00,486,WeatherHawk,2013-05-09 15:08:00,
2013-05-09 08:12:00,66.9,47.1,29.98,NW,309,7.0,0.0,49,0.00,,,0.00,501,WeatherHawk,2013-05-09 15:12:00,
2013-05-09 08:13:00,67.1,46.7,29.98,NW,318,9.0,0.0,48,0.00,,,0.00,505,WeatherHawk,2013-05-09 15:13:00,
2013-05-09 08:15:00,67.5,45.9,29.98,WNW,302,10.0,0.0,46,0.00,,,0.00,515,WeatherHawk,2013-05-09 15:15:00,
2013-05-09 08:17:00,67.5,45.9,29.98,WNW,302,10.0,-999.0,46,0.00,,,0.00,515,WeatherHawk,2013-05-09 15:17:00,
2013-05-09 08:19:00,67.5,45.4,29.99,WNW,285,8.0,0.0,45,0.00,,,0.00,530,WeatherHawk,2013-05-09 15:19:00,
2013-05-09 08:22:00,67.6,45.5,29.99,WNW,286,9.0,0.0,45,0.00,,,0.00,540,WeatherHawk,2013-05-09 15:22:00,
2013-05-09 08:23:00,67.8,45.1,29.99,WNW,302,10.0,0.0,44,0.00,,,0.00,545,WeatherHawk,2013-05-09 15:23:00,
2013-05-09 08:26:00,67.8,45.7,29.99,WNW,294,9.0,0.0,45,0.00,,,0.00,553,WeatherHawk,2013-05-09 15:26:00,
2013-05-09 08:27:00,67.8,45.1,29.99,West,278,10.0,0.0,44,0.00,,,0.00,556,WeatherHawk,2013-05-09 15:27:00,
2013-05-09 08:28:00,67.8,46.3,29.99,WNW,289,9.0,0.0,46,0.00,,,0.00,562,WeatherHawk,2013-05-09 15:28:00,
2013-05-09 08:31:00,68.0,45.3,29.99,WNW,299,9.0,0.0,44,0.00,,,0.00,574,WeatherHawk,2013-05-09 15:31:00,
2013-05-09 08:32:00,68.0,45.3,29.99,WNW,299,9.0,0.0,44,0.00,,,0.00,574,WeatherHawk,2013-05-09 15:32:00,
2013-05-09 08:34:00,68.2,45.4,29.99,WNW,291,9.0,0.0,44,0.00,,,0.00,583,WeatherHawk,2013-05-09 15:34:00,
2013-05-09 08:37:00,68.2,44.8,29.99,WNW,287,10.0,0.0,43,0.00,,,0.00,591,WeatherHawk,2013-05-09 15:37:00,
2013-05-09 08:38:00,68.2,45.4,29.99,WNW,287,10.0,0.0,44,0.00,,,0.00,597,WeatherHawk,2013-05-09 15:38:00,
2013-05-09 08:42:00,68.5,45.1,29.99,WNW,288,9.0,0.0,43,0.00,,,0.00,609,WeatherHawk,2013-05-09 15:42:00,
2013-05-09 08:44:00,68.7,45.3,29.99,WNW,289,8.0,0.0,43,0.00,,,0.00,620,WeatherHawk,2013-05-09 15:44:00,
2013-05-09 08:47:00,68.9,45.5,29.99,West,277,8.0,0.0,43,0.00,,,0.00,627,WeatherHawk,2013-05-09 15:47:00,
2013-05-09 08:48:00,68.9,46.1,29.99,West,278,7.0,0.0,44,0.00,,,0.00,634,WeatherHawk,2013-05-09 15:48:00,
2013-05-09 08:51:00,69.1,45.6,29.99,West,276,8.0,0.0,43,0.00,,,0.00,644,WeatherHawk,2013-05-09 15:51:00,
2013-05-09 08:52:00,69.3,45.2,29.99,WNW,298,7.0,0.0,42,0.00,,,0.00,647,WeatherHawk,2013-05-09 15:52:00,
2013-05-09 08:55:00,69.3,45.8,29.99,WNW,289,7.0,0.0,43,0.00,,,0.00,657,WeatherHawk,2013-05-09 15:55:00,
2013-05-09 08:59:00,69.4,45.3,29.99,NW,314,7.0,0.0,42,0.00,,,0.00,670,WeatherHawk,2013-05-09 15:59:00,
2013-05-09 09:02:00,69.8,46.3,29.99,WNW,283,7.0,-999.0,43,0.00,,,0.00,680,WeatherHawk,2013-05-09 16:02:00,
2013-05-09 09:05:00,70.0,45.8,29.99,West,273,6.0,0.0,42,0.00,,,0.00,691,WeatherHawk,2013-05-09 16:05:00,
2013-05-09 09:06:00,70.2,45.3,29.99,West,277,9.0,0.0,41,0.00,,,0.00,698,WeatherHawk,2013-05-09 16:06:00,
2013-05-09 09:07:00,70.2,45.3,29.99,West,277,9.0,-999.0,41,0.00,,,0.00,698,WeatherHawk,2013-05-09 16:07:00,
2013-05-09 09:11:00,70.7,45.8,29.99,NW,304,10.0,0.0,41,0.00,,,0.00,715,WeatherHawk,2013-05-09 16:11:00,
2013-05-09 09:12:00,71.1,45.5,29.99,WNW,299,11.0,0.0,40,0.00,,,0.00,717,WeatherHawk,2013-05-09 16:12:00,
2013-05-09 09:13:00,71.2,45.7,29.99,West,281,12.0,0.0,40,0.00,,,0.00,721,WeatherHawk,2013-05-09 16:13:00,
2013-05-09 09:17:00,71.8,44.8,29.99,NW,308,13.0,0.0,38,0.00,,,0.00,733,WeatherHawk,2013-05-09 16:17:00,
2013-05-09 09:20:00,71.6,45.3,29.99,WNW,293,10.0,0.0,39,0.00,,,0.00,743,WeatherHawk,2013-05-09 16:20:00,
2013-05-09 09:23:00,71.6,45.3,29.99,NW,312,12.0,0.0,39,0.00,,,0.00,752,WeatherHawk,2013-05-09 16:23:00,
2013-05-09 09:25:00,71.8,45.5,29.99,WNW,296,8.0,0.0,39,0.00,,,0.00,761,WeatherHawk,2013-05-09 16:25:00,
2013-05-09 09:27:00,72.0,45.0,29.99,WNW,293,10.0,-999.0,38,0.00,,,0.00,764,WeatherHawk,2013-05-09 16:27:00,
2013-05-09 09:31:00,72.0,45.6,29.99,West,276,6.0,14.0,39,0.00,,,0.00,777,WeatherHawk,2013-05-09 16:31:00,
2013-05-09 09:32:00,72.0,45.6,29.99,West,276,6.0,14.0,39,0.00,,,0.00,777,WeatherHawk,2013-05-09 16:32:00,
2013-05-09 09:33:00,72.5,46.1,29.99,WNW,284,8.0,14.0,39,0.00,,,0.00,784,WeatherHawk,2013-05-09 16:33:00,
2013-05-09 09:37:00,72.9,45.8,29.99,NW,309,8.0,14.0,38,0.00,,,0.00,793,WeatherHawk,2013-05-09 16:37:00,
2013-05-09 09:41:00,72.5,44.7,29.99,WNW,290,12.0,0.0,37,0.00,,,0.00,808,WeatherHawk,2013-05-09 16:41:00,
2013-05-09 09:42:00,72.5,44.7,29.99,WNW,290,12.0,0.0,37,0.00,,,0.00,808,WeatherHawk,2013-05-09 16:42:00,
2013-05-09 09:44:00,72.5,45.4,29.99,WNW,283,8.0,0.0,38,0.00,,,0.00,815,WeatherHawk,2013-05-09 16:44:00,
2013-05-09 09:47:00,72.9,45.1,29.99,WNW,287,11.0,0.0,37,0.00,,,0.00,824,WeatherHawk,2013-05-09 16:47:00,
2013-05-09 09:52:00,73.6,45.7,29.99,West,265,8.0,0.0,37,0.00,,,0.00,839,WeatherHawk,2013-05-09 16:52:00,
2013-05-09 09:53:00,73.6,45.0,29.99,WNW,293,10.0,0.0,36,0.00,,,0.00,843,WeatherHawk,2013-05-09 16:53:00,
2013-05-09 09:57:00,73.6,46.4,29.99,West,279,9.0,0.0,38,0.00,,,0.00,848,WeatherHawk,2013-05-09 16:57:00,
2013-05-09 10:01:00,73.8,45.8,29.99,West,280,7.0,0.0,37,0.00,,,0.00,863,WeatherHawk,2013-05-09 17:01:00,
2013-05-09 10:02:00,73.8,45.8,29.99,West,280,7.0,0.0,37,0.00,,,0.00,863,WeatherHawk,2013-05-09 17:02:00,
2013-05-09 10:07:00,73.9,45.3,29.99,West,276,10.0,0.0,36,0.00,,,0.00,876,WeatherHawk,2013-05-09 17:07:00,
2013-05-09 10:08:00,74.1,45.4,29.99,NW,304,9.0,0.0,36,0.00,,,0.00,882,WeatherHawk,2013-05-09 17:08:00,
2013-05-09 10:09:00,74.3,45.6,29.99,WNW,284,8.0,0.0,36,0.00,,,0.00,886,WeatherHawk,2013-05-09 17:09:00,
2013-05-09 10:12:00,74.1,45.4,29.99,WNW,299,9.0,-999.0,36,0.00,,,0.00,887,WeatherHawk,2013-05-09 17:12:00,
2013-05-09 10:14:00,74.3,45.6,29.99,WNW,295,7.0,0.0,36,0.00,,,0.00,898,WeatherHawk,2013-05-09 17:14:00,
2013-05-09 10:17:00,74.3,45.6,29.99,WNW,293,7.0,0.0,36,0.00,,,0.00,903,WeatherHawk,2013-05-09 17:17:00,
2013-05-09 10:19:00,74.8,45.3,29.99,West,263,9.0,0.0,35,0.00,,,0.00,912,WeatherHawk,2013-05-09 17:19:00,
2013-05-09 10:22:00,75.2,45.7,29.99,WSW,255,9.0,0.0,35,0.00,,,0.00,916,WeatherHawk,2013-05-09 17:22:00,
2013-05-09 10:25:00,74.8,45.3,29.99,West,280,5.0,0.0,35,0.00,,,0.00,927,WeatherHawk,2013-05-09 17:25:00,
2013-05-09 10:27:00,74.7,45.2,29.99,WNW,301,5.0,-999.0,35,0.00,,,0.00,931,WeatherHawk,2013-05-09 17:27:00,
2013-05-09 10:28:00,75.2,45.7,29.99,WSW,251,10.0,0.0,35,0.00,,,0.00,936,WeatherHawk,2013-05-09 17:28:00,
2013-05-09 10:32:00,75.2,44.9,29.99,West,276,6.0,0.0,34,0.00,,,0.00,943,WeatherHawk,2013-05-09 17:32:00,
2013-05-09 10:34:00,75.2,44.9,29.99,WSW,251,7.0,0.0,34,0.00,,,0.00,947,WeatherHawk,2013-05-09 17:34:00,
2013-05-09 10:36:00,75.2,45.7,29.99,WSW,244,7.0,0.0,35,0.00,,,0.00,951,WeatherHawk,2013-05-09 17:36:00,
2013-05-09 10:37:00,75.2,45.7,29.99,WSW,247,5.0,0.0,35,0.00,,,0.00,955,WeatherHawk,2013-05-09 17:37:00,
2013-05-09 10:38:00,75.4,45.8,29.99,West,278,7.0,0.0,35,0.00,,,0.00,958,WeatherHawk,2013-05-09 17:38:00,
2013-05-09 10:42:00,75.9,45.5,29.99,WSW,254,8.0,0.0,34,0.00,,,0.00,963,WeatherHawk,2013-05-09 17:42:00,
2013-05-09 10:46:00,75.9,45.5,29.99,West,260,10.0,0.0,34,0.00,,,0.00,971,WeatherHawk,2013-05-09 17:46:00,
2013-05-09 10:47:00,75.9,45.5,29.99,West,260,10.0,0.0,34,0.00,,,0.00,971,WeatherHawk,2013-05-09 17:47:00,
2013-05-09 10:49:00,76.6,45.4,29.99,WSW,253,12.0,0.0,33,0.00,,,0.00,979,WeatherHawk,2013-05-09 17:49:00,
2013-05-09 10:51:00,76.8,45.5,29.99,West,270,6.0,0.0,33,0.00,,,0.00,986,WeatherHawk,2013-05-09 17:51:00,
2013-05-09 10:52:00,76.8,45.5,29.99,West,270,6.0,0.0,33,0.00,,,0.00,986,WeatherHawk,2013-05-09 17:52:00,
2013-05-09 10:53:00,76.6,45.4,29.99,WSW,257,9.0,0.0,33,0.00,,,0.00,986,WeatherHawk,2013-05-09 17:53:00,
2013-05-09 10:55:00,76.5,45.2,29.99,WSW,255,10.0,0.0,33,0.00,,,0.00,993,WeatherHawk,2013-05-09 17:55:00,
2013-05-09 10:57:00,76.5,45.2,29.99,West,281,5.0,0.0,33,0.00,,,0.00,994,WeatherHawk,2013-05-09 17:57:00,
2013-05-09 11:00:00,76.5,45.2,29.99,SW,226,6.0,0.0,33,0.00,,,0.00,1002,WeatherHawk,2013-05-09 18:00:00,
2013-05-09 11:01:00,76.6,46.1,29.99,WSW,246,7.0,0.0,34,0.00,,,0.00,1003,WeatherHawk,2013-05-09 18:01:00,
2013-05-09 11:02:00,76.6,46.1,29.99,WSW,246,7.0,0.0,34,0.00,,,0.00,1003,WeatherHawk,2013-05-09 18:02:00,
2013-05-09 11:04:00,76.8,44.7,29.99,West,260,8.0,0.0,32,0.00,,,0.00,1010,WeatherHawk,2013-05-09 18:04:00,
2013-05-09 11:07:00,77.4,45.2,29.99,WNW,290,8.0,0.0,32,0.00,,,0.00,1016,WeatherHawk,2013-05-09 18:07:00,
2013-05-09 11:08:00,77.2,45.0,29.99,West,266,8.0,0.0,32,0.00,,,0.00,1017,WeatherHawk,2013-05-09 18:08:00,
2013-05-09 11:12:00,77.2,45.8,29.98,WNW,289,11.0,0.0,33,0.00,,,0.00,1023,WeatherHawk,2013-05-09 18:12:00,
2013-05-09 11:14:00,77.4,45.2,29.98,WNW,285,10.0,0.0,32,0.00,,,0.00,1028,WeatherHawk,2013-05-09 18:14:00,
2013-05-09 11:17:00,77.2,44.2,29.98,West,278,7.0,0.0,31,0.00,,,0.00,1030,WeatherHawk,2013-05-09 18:17:00,
2013-05-09 11:18:00,77.0,44.9,29.98,WNW,292,5.0,0.0,32,0.00,,,0.00,1032,WeatherHawk,2013-05-09 18:18:00,
2013-05-09 11:21:00,77.4,45.2,29.98,WNW,302,7.0,0.0,32,0.00,,,0.00,1039,WeatherHawk,2013-05-09 18:21:00,
2013-05-09 11:22:00,77.4,45.2,29.98,WNW,302,7.0,0.0,32,0.00,,,0.00,1039,WeatherHawk,2013-05-09 18:22:00,
2013-05-09 11:24:00,77.4,44.3,29.98,West,263,6.0,0.0,31,0.00,,,0.00,1041,WeatherHawk,2013-05-09 18:24:00,
2013-05-09 11:27:00,77.4,45.2,29.98,West,264,7.0,0.0,32,0.00,,,0.00,1046,WeatherHawk,2013-05-09 18:27:00,
2013-05-09 11:30:00,77.9,44.8,29.98,WSW,247,9.0,0.0,31,0.00,,,0.00,1050,WeatherHawk,2013-05-09 18:30:00,
2013-05-09 11:32:00,77.9,44.8,29.98,SW,229,8.0,0.0,31,0.00,,,0.00,1051,WeatherHawk,2013-05-09 18:32:00,
2013-05-09 11:37:00,78.6,45.4,29.98,West,279,10.0,0.0,31,0.00,,,0.00,1058,WeatherHawk,2013-05-09 18:37:00,
2013-05-09 11:38:00,78.4,44.4,29.98,West,279,6.0,0.0,30,0.00,,,0.00,1058,WeatherHawk,2013-05-09 18:38:00,
2013-05-09 11:40:00,78.3,44.3,29.98,West,271,7.0,0.0,30,0.00,,,0.00,1061,WeatherHawk,2013-05-09 18:40:00,
2013-05-09 11:42:00,78.3,45.1,29.98,WSW,258,7.0,0.0,31,0.00,,,0.00,1064,WeatherHawk,2013-05-09 18:42:00,
2013-05-09 11:43:00,78.4,45.3,29.98,WNW,292,6.0,0.0,31,0.00,,,0.00,1065,WeatherHawk,2013-05-09 18:43:00,
2013-05-09 11:46:00,78.6,44.6,29.98,WNW,287,4.0,0.0,30,0.00,,,0.00,1069,WeatherHawk,2013-05-09 18:46:00,
2013-05-09 11:47:00,78.6,44.6,29.98,WNW,287,4.0,0.0,30,0.00,,,0.00,1069,WeatherHawk,2013-05-09 18:47:00,
2013-05-09 11:50:00,78.8,44.7,29.98,West,269,5.0,11.0,30,0.00,,,0.00,1074,WeatherHawk,2013-05-09 18:50:00,
2013-05-09 11:51:00,78.8,45.6,29.98,WNW,284,4.0,11.0,31,0.00,,,0.00,1071,WeatherHawk,2013-05-09 18:51:00,
2013-05-09 11:52:00,78.8,45.6,29.98,WNW,284,4.0,11.0,31,0.00,,,0.00,1071,WeatherHawk,2013-05-09 18:52:00,
2013-05-09 11:53:00,79.0,45.7,29.98,West,271,6.0,11.0,31,0.00,,,0.00,1071,WeatherHawk,2013-05-09 18:53:00,
2013-05-09 11:57:00,79.2,45.0,29.98,West,263,6.0,11.0,30,0.00,,,0.00,1076,WeatherHawk,2013-05-09 18:57:00,
2013-05-09 12:00:00,79.0,44.9,29.97,WNW,282,4.0,0.0,30,0.00,,,0.00,1080,WeatherHawk,2013-05-09 19:00:00,
2013-05-09 12:02:00,79.2,44.1,29.97,West,281,7.0,0.0,29,0.00,,,0.00,1082,WeatherHawk,2013-05-09 19:02:00,
2013-05-09 12:03:00,79.2,44.1,29.97,WNW,286,6.0,0.0,29,0.00,,,0.00,1077,WeatherHawk,2013-05-09 19:03:00,
2013-05-09 12:07:00,79.7,45.5,29.97,NW,307,5.0,-999.0,30,0.00,,,0.00,1081,WeatherHawk,2013-05-09 19:07:00,
2013-05-09 12:08:00,79.5,45.3,29.97,NW,316,6.0,0.0,30,0.00,,,0.00,1080,WeatherHawk,2013-05-09 19:08:00,
2013-05-09 12:09:00,79.5,45.3,29.97,WNW,302,4.0,0.0,30,0.00,,,0.00,1078,WeatherHawk,2013-05-09 19:09:00,
2013-05-09 12:11:00,79.7,46.4,29.97,West,280,6.0,0.0,31,0.00,,,0.00,1084,WeatherHawk,2013-05-09 19:11:00,
2013-05-09 12:13:00,79.7,44.6,29.97,WNW,299,4.0,0.0,29,0.00,,,0.00,1089,WeatherHawk,2013-05-09 19:13:00,
2013-05-09 12:16:00,79.7,44.6,29.97,WNW,302,11.0,0.0,29,0.00,,,0.00,1086,WeatherHawk,2013-05-09 19:16:00,
2013-05-09 12:17:00,79.5,44.5,29.97,WNW,297,8.0,0.0,29,0.00,,,0.00,1092,WeatherHawk,2013-05-09 19:17:00,
2013-05-09 12:18:00,79.5,45.3,29.97,WNW,290,8.0,0.0,30,0.00,,,0.00,1088,WeatherHawk,2013-05-09 19:18:00,
2013-05-09 12:21:00,80.1,44.0,29.97,NW,306,9.0,0.0,28,0.00,,,0.00,1091,WeatherHawk,2013-05-09 19:21:00,
2013-05-09 12:22:00,80.1,44.9,29.97,WNW,288,10.0,0.0,29,0.00,,,0.00,1088,WeatherHawk,2013-05-09 19:22:00,
2013-05-09 12:24:00,80.1,44.0,29.97,WNW,288,8.0,0.0,28,0.00,,,0.00,1080,WeatherHawk,2013-05-09 19:24:00,
2013-05-09 12:27:00,80.1,44.9,29.96,West,265,8.0,0.0,29,0.00,,,0.00,1092,WeatherHawk,2013-05-09 19:27:00,
2013-05-09 12:29:00,80.8,44.6,29.96,WSW,244,7.0,0.0,28,0.00,,,0.00,1097,WeatherHawk,2013-05-09 19:29:00,
2013-05-09 12:32:00,80.8,44.6,29.96,West,259,9.0,-999.0,28,0.00,,,0.00,1096,WeatherHawk,2013-05-09 19:32:00,
2013-05-09 12:34:00,80.4,44.3,29.96,WSW,237,7.0,0.0,28,0.00,,,0.00,1096,WeatherHawk,2013-05-09 19:34:00,
2013-05-09 12:35:00,80.2,44.1,29.96,SSW,207,9.0,0.0,28,0.00,,,0.00,1097,WeatherHawk,2013-05-09 19:35:00,
2013-05-09 12:36:00,80.2,44.1,29.96,SSW,204,8.0,0.0,28,0.00,,,0.00,1098,WeatherHawk,2013-05-09 19:36:00,
2013-05-09 12:39:00,80.8,44.6,29.96,West,259,11.0,0.0,28,0.00,,,0.00,1089,WeatherHawk,2013-05-09 19:39:00,
2013-05-09 12:40:00,81.0,43.8,29.96,SW,235,11.0,0.0,27,0.00,,,0.00,1096,WeatherHawk,2013-05-09 19:40:00,
2013-05-09 12:42:00,81.0,43.8,29.96,SW,235,11.0,0.0,27,0.00,,,0.00,1096,WeatherHawk,2013-05-09 19:42:00,
2013-05-09 12:44:00,81.0,43.8,29.96,SW,219,7.0,0.0,27,0.00,,,0.00,1095,WeatherHawk,2013-05-09 19:44:00,
2013-05-09 12:47:00,81.0,44.8,29.96,West,263,3.0,0.0,28,0.00,,,0.00,1092,WeatherHawk,2013-05-09 19:47:00,
2013-05-09 12:50:00,81.0,44.8,29.96,WNW,283,13.0,0.0,28,0.00,,,0.00,1080,WeatherHawk,2013-05-09 19:50:00,
2013-05-09 12:51:00,81.3,44.1,29.96,WNW,292,9.0,0.0,27,0.00,,,0.00,1078,WeatherHawk,2013-05-09 19:51:00,
2013-05-09 12:52:00,81.3,44.1,29.96,WNW,292,9.0,0.0,27,0.00,,,0.00,1078,WeatherHawk,2013-05-09 19:52:00,
2013-05-09 12:55:00,81.5,43.3,29.96,WSW,255,9.0,0.0,26,0.00,,,0.00,1082,WeatherHawk,2013-05-09 19:55:00,
2013-05-09 13:00:00,81.1,43.0,29.96,NW,306,3.0,0.0,26,0.00,,,0.00,1086,WeatherHawk,2013-05-09 20:00:00,
2013-05-09 13:01:00,81.1,43.0,29.96,WSW,247,3.0,0.0,26,0.00,,,0.00,1083,WeatherHawk,2013-05-09 20:01:00,
2013-05-09 13:02:00,81.5,43.3,29.96,West,269,5.0,0.0,26,0.00,,,0.00,1082,WeatherHawk,2013-05-09 20:02:00,
2013-05-09 13:03:00,81.7,43.4,29.96,West,268,6.0,0.0,26,0.00,,,0.00,1087,WeatherHawk,2013-05-09 20:03:00,
2013-05-09 13:05:00,82.0,41.7,29.95,WSW,239,9.0,0.0,24,0.00,,,0.00,1088,WeatherHawk,2013-05-09 20:05:00,
2013-05-09 13:06:00,82.0,39.4,29.95,SW,234,8.0,0.0,22,0.00,,,0.00,1091,WeatherHawk,2013-05-09 20:06:00,
2013-05-09 13:10:00,81.5,41.2,29.95,WSW,255,11.0,0.0,24,0.00,,,0.00,1093,WeatherHawk,2013-05-09 20:10:00,
2013-05-09 13:12:00,81.9,41.5,29.95,WSW,240,8.0,0.0,24,0.00,,,0.00,1088,WeatherHawk,2013-05-09 20:12:00,
2013-05-09 13:15:00,82.4,40.9,29.95,SSW,208,5.0,11.0,23,0.00,,,0.00,1084,WeatherHawk,2013-05-09 20:15:00,
2013-05-09 13:17:00,82.4,40.9,29.95,SW,221,6.0,11.0,23,0.00,,,0.00,1076,WeatherHawk,2013-05-09 20:17:00,
2013-05-09 13:18:00,82.4,40.9,29.95,WNW,290,10.0,0.0,23,0.00,,,0.00,1074,WeatherHawk,2013-05-09 20:18:00,
2013-05-09 13:21:00,81.7,40.3,29.95,WNW,289,1.0,12.0,23,0.00,,,0.00,1071,WeatherHawk,2013-05-09 20:21:00,
2013-05-09 13:25:00,82.0,39.4,29.95,WNW,283,8.0,12.0,22,0.00,,,0.00,1079,WeatherHawk,2013-05-09 20:25:00,
2013-05-09 13:27:00,82.0,40.6,29.95,West,271,5.0,12.0,23,0.00,,,0.00,1072,WeatherHawk,2013-05-09 20:27:00,
2013-05-09 13:30:00,82.6,38.7,29.95,WSW,253,7.0,0.0,21,0.00,,,0.00,1057,WeatherHawk,2013-05-09 20:30:00,
2013-05-09 13:31:00,82.6,37.4,29.95,SW,234,5.0,0.0,20,0.00,,,0.00,1060,WeatherHawk,2013-05-09 20:31:00,
2013-05-09 13:35:00,82.4,39.7,29.95,SW,234,4.0,0.0,22,0.00,,,0.00,1067,WeatherHawk,2013-05-09 20:35:00,
2013-05-09 13:36:00,82.6,42.1,29.95,WSW,240,5.0,0.0,24,0.00,,,0.00,1071,WeatherHawk,2013-05-09 20:36:00,
2013-05-09 13:37:00,82.6,42.1,29.95,WSW,240,5.0,-999.0,24,0.00,,,0.00,1071,WeatherHawk,2013-05-09 20:37:00,
2013-05-09 13:40:00,82.9,40.2,29.94,West,262,8.0,0.0,22,0.00,,,0.00,1082,WeatherHawk,2013-05-09 20:40:00,
2013-05-09 13:42:00,82.9,39.0,29.94,SW,228,13.0,0.0,21,0.00,,,0.00,1086,WeatherHawk,2013-05-09 20:42:00,
2013-05-09 13:44:00,82.9,40.2,29.94,SW,233,11.0,0.0,22,0.00,,,0.00,1095,WeatherHawk,2013-05-09 20:44:00,
2013-05-09 13:47:00,82.9,39.0,29.94,WSW,237,11.0,-999.0,21,0.00,,,0.00,1098,WeatherHawk,2013-05-09 20:47:00,
2013-05-09 13:52:00,82.8,38.8,29.94,WSW,252,5.0,0.0,21,0.00,,,0.00,1105,WeatherHawk,2013-05-09 20:52:00,
2013-05-09 13:53:00,82.6,37.4,29.94,SSW,196,4.0,0.0,20,0.00,,,0.00,906,WeatherHawk,2013-05-09 20:53:00,
2013-05-09 13:56:00,82.9,37.7,29.94,ENE,74,2.0,0.0,20,0.00,,,0.00,832,WeatherHawk,2013-05-09 20:56:00,
2013-05-09 13:59:00,83.1,39.1,29.94,WSW,239,4.0,0.0,21,0.00,,,0.00,1107,WeatherHawk,2013-05-09 20:59:00,
2013-05-09 14:00:00,83.3,38.0,29.94,WSW,249,8.0,0.0,20,0.00,,,0.00,1111,WeatherHawk,2013-05-09 21:00:00,
2013-05-09 14:02:00,83.3,38.0,29.94,WSW,249,8.0,-999.0,20,0.00,,,0.00,1111,WeatherHawk,2013-05-09 21:02:00,
2013-05-09 14:03:00,83.7,35.6,29.94,SW,228,10.0,0.0,18,0.00,,,0.00,550,WeatherHawk,2013-05-09 21:03:00,
2013-05-09 14:05:00,83.1,36.6,29.93,WSW,256,8.0,0.0,19,0.00,,,0.00,639,WeatherHawk,2013-05-09 21:05:00,
2013-05-09 14:06:00,82.9,36.4,29.93,SW,230,6.0,0.0,19,0.00,,,0.00,605,WeatherHawk,2013-05-09 21:06:00,
2013-05-09 14:07:00,82.9,36.4,29.93,SW,230,6.0,-999.0,19,0.00,,,0.00,605,WeatherHawk,2013-05-09 21:07:00,
2013-05-09 14:09:00,82.4,37.3,29.93,WSW,247,6.0,0.0,20,0.00,,,0.00,609,WeatherHawk,2013-05-09 21:09:00,
2013-05-09 14:11:00,82.4,37.3,29.93,WSW,249,5.0,0.0,20,0.00,,,0.00,722,WeatherHawk,2013-05-09 21:11:00,
2013-05-09 14:12:00,82.4,37.3,29.93,WSW,250,4.0,0.0,20,0.00,,,0.00,777,WeatherHawk,2013-05-09 21:12:00,
2013-05-09 14:16:00,82.6,38.7,29.93,NW,325,5.0,0.0,21,0.00,,,0.00,745,WeatherHawk,2013-05-09 21:16:00,
2013-05-09 14:17:00,82.6,38.7,29.93,NNW,331,5.0,0.0,21,0.00,,,0.00,776,WeatherHawk,2013-05-09 21:17:00,
2013-05-09 14:18:00,82.6,38.7,29.93,NW,307,6.0,0.0,21,0.00,,,0.00,667,WeatherHawk,2013-05-09 21:18:00,
2013-05-09 14:19:00,82.6,38.7,29.93,NW,313,7.0,0.0,21,0.00,,,0.00,784,WeatherHawk,2013-05-09 21:19:00,
2013-05-09 14:22:00,82.6,39.9,29.93,West,268,8.0,0.0,22,0.00,,,0.00,822,WeatherHawk,2013-05-09 21:22:00,
2013-05-09 14:23:00,82.6,38.7,29.92,WSW,242,9.0,0.0,21,0.00,,,0.00,802,WeatherHawk,2013-05-09 21:23:00,
2013-05-09 14:25:00,82.8,38.8,29.92,West,272,4.0,0.0,21,0.00,,,0.00,827,WeatherHawk,2013-05-09 21:25:00,
2013-05-09 14:27:00,82.4,39.7,29.92,WNW,290,10.0,0.0,22,0.00,,,0.00,733,WeatherHawk,2013-05-09 21:27:00,
2013-05-09 14:30:00,83.1,37.9,29.92,WSW,254,11.0,0.0,20,0.00,,,0.00,1088,WeatherHawk,2013-05-09 21:30:00,
2013-05-09 14:32:00,83.1,39.1,29.92,WNW,282,8.0,0.0,21,0.00,,,0.00,1037,WeatherHawk,2013-05-09 21:32:00,
2013-05-09 14:33:00,82.8,38.8,29.92,WNW,292,4.0,0.0,21,0.00,,,0.00,1085,WeatherHawk,2013-05-09 21:33:00,
2013-05-09 14:37:00,82.9,36.4,29.92,NW,310,6.0,0.0,19,0.00,,,0.00,731,WeatherHawk,2013-05-09 21:37:00,
2013-05-09 14:38:00,82.9,40.2,29.92,NNW,334,7.0,0.0,22,0.00,,,0.00,816,WeatherHawk,2013-05-09 21:38:00,
2013-05-09 14:42:00,82.8,41.2,29.92,WNW,303,7.0,-999.0,23,0.00,,,0.00,549,WeatherHawk,2013-05-09 21:42:00,
2013-05-09 14:43:00,83.1,39.1,29.92,WSW,257,6.0,0.0,21,0.00,,,0.00,924,WeatherHawk,2013-05-09 21:43:00,
2013-05-09 14:45:00,83.1,39.1,29.92,West,265,7.0,0.0,21,0.00,,,0.00,1010,WeatherHawk,2013-05-09 21:45:00,
2013-05-09 14:47:00,83.3,40.5,29.91,West,281,6.0,0.0,22,0.00,,,0.00,999,WeatherHawk,2013-05-09 21:47:00,
2013-05-09 14:48:00,83.3,38.0,29.91,West,278,8.0,0.0,20,0.00,,,0.00,1004,WeatherHawk,2013-05-09 21:48:00,
2013-05-09 14:52:00,83.5,36.9,29.91,West,265,6.0,-999.0,19,0.00,,,0.00,1003,WeatherHawk,2013-05-09 21:52:00,
2013-05-09 14:53:00,83.7,37.0,29.91,SW,228,6.0,0.0,19,0.00,,,0.00,935,WeatherHawk,2013-05-09 21:53:00,
2013-05-09 14:57:00,83.7,38.3,29.91,WSW,252,7.0,0.0,20,0.00,,,0.00,888,WeatherHawk,2013-05-09 21:57:00,
2013-05-09 15:00:00,84.0,38.6,29.91,West,276,14.0,0.0,20,0.00,,,0.00,912,WeatherHawk,2013-05-09 22:00:00,
2013-05-09 15:02:00,83.8,38.5,29.91,WSW,248,7.0,0.0,20,0.00,,,0.00,858,WeatherHawk,2013-05-09 22:02:00,
2013-05-09 15:07:00,83.8,39.7,29.91,West,277,6.0,0.0,21,0.00,,,0.00,911,WeatherHawk,2013-05-09 22:07:00,
2013-05-09 15:08:00,83.5,38.2,29.91,West,271,8.0,0.0,20,0.00,,,0.00,915,WeatherHawk,2013-05-09 22:08:00,
2013-05-09 15:12:00,83.7,37.0,29.90,SW,233,6.0,0.0,19,0.00,,,0.00,891,WeatherHawk,2013-05-09 22:12:00,
2013-05-09 15:13:00,83.8,38.5,29.90,WSW,245,11.0,0.0,20,0.00,,,0.00,892,WeatherHawk,2013-05-09 22:13:00,
2013-05-09 15:16:00,84.4,38.9,29.90,WSW,251,9.0,0.0,20,0.00,,,0.00,881,WeatherHawk,2013-05-09 22:16:00,
2013-05-09 15:17:00,84.4,37.6,29.90,WSW,238,8.0,0.0,19,0.00,,,0.00,877,WeatherHawk,2013-05-09 22:17:00,
2013-05-09 15:18:00,84.4,38.9,29.90,WNW,292,6.0,0.0,20,0.00,,,0.00,870,WeatherHawk,2013-05-09 22:18:00,
2013-05-09 15:22:00,84.6,36.4,29.90,West,267,10.0,0.0,18,0.00,,,0.00,865,WeatherHawk,2013-05-09 22:22:00,
2013-05-09 15:23:00,83.8,35.8,29.90,West,281,9.0,0.0,18,0.00,,,0.00,851,WeatherHawk,2013-05-09 22:23:00,
2013-05-09 15:24:00,83.7,37.0,29.90,West,268,10.0,0.0,19,0.00,,,0.00,846,WeatherHawk,2013-05-09 22:24:00,
2013-05-09 15:27:00,83.7,38.3,29.90,West,269,9.0,0.0,20,0.00,,,0.00,826,WeatherHawk,2013-05-09 22:27:00,
2013-05-09 15:29:00,83.8,38.5,29.90,SW,231,7.0,0.0,20,0.00,,,0.00,797,WeatherHawk,2013-05-09 22:29:00,
2013-05-09 15:30:00,83.8,38.5,29.90,South,181,5.0,0.0,20,0.00,,,0.00,807,WeatherHawk,2013-05-09 22:30:00,
2013-05-09 15:31:00,83.8,38.5,29.90,South,180,9.0,0.0,20,0.00,,,0.00,807,WeatherHawk,2013-05-09 22:31:00,
2013-05-09 15:32:00,83.8,38.5,29.90,South,180,9.0,0.0,20,0.00,,,0.00,807,WeatherHawk,2013-05-09 22:32:00,
2013-05-09 15:37:00,84.6,37.7,29.90,SSW,208,13.0,0.0,19,0.00,,,0.00,807,WeatherHawk,2013-05-09 22:37:00,
2013-05-09 15:38:00,84.4,37.6,29.90,SW,232,13.0,0.0,19,0.00,,,0.00,800,WeatherHawk,2013-05-09 22:38:00,
2013-05-09 15:42:00,83.8,38.5,29.90,SSW,208,6.0,0.0,20,0.00,,,0.00,791,WeatherHawk,2013-05-09 22:42:00,
2013-05-09 15:46:00,83.3,36.7,29.90,SW,224,4.0,0.0,19,0.00,,,0.00,784,WeatherHawk,2013-05-09 22:46:00,
2013-05-09 15:47:00,83.5,36.9,29.90,SW,227,8.0,0.0,19,0.00,,,0.00,781,WeatherHawk,2013-05-09 22:47:00,
2013-05-09 15:50:00,83.5,36.9,29.89,WSW,245,4.0,0.0,19,0.00,,,0.00,771,WeatherHawk,2013-05-09 22:50:00,
2013-05-09 15:52:00,83.7,35.6,29.89,WSW,250,6.0,0.0,18,0.00,,,0.00,765,WeatherHawk,2013-05-09 22:52:00,
2013-05-09 15:57:00,84.0,35.9,29.89,West,262,6.0,0.0,18,0.00,,,0.00,745,WeatherHawk,2013-05-09 22:57:00,
2013-05-09 16:01:00,83.7,35.6,29.89,NW,324,3.0,0.0,18,0.00,,,0.00,731,WeatherHawk,2013-05-09 23:01:00,
2013-05-09 16:02:00,83.7,35.6,29.89,NW,324,3.0,-999.0,18,0.00,,,0.00,731,WeatherHawk,2013-05-09 23:02:00,
2013-05-09 16:05:00,83.8,35.8,29.89,WNW,297,4.0,0.0,18,0.00,,,0.00,720,WeatherHawk,2013-05-09 23:05:00,
2013-05-09 16:11:00,84.6,34.9,29.89,SW,225,11.0,11.0,17,0.00,,,0.00,707,WeatherHawk,2013-05-09 23:11:00,
2013-05-09 16:12:00,84.2,34.6,29.89,WSW,249,10.0,10.0,17,0.00,,,0.00,700,WeatherHawk,2013-05-09 23:12:00,
2013-05-09 16:15:00,84.2,34.6,29.89,West,270,9.0,9.0,17,0.00,,,0.00,684,WeatherHawk,2013-05-09 23:15:00,
2013-05-09 16:17:00,84.0,34.5,29.89,West,259,6.0,9.0,17,0.00,,,0.00,681,WeatherHawk,2013-05-09 23:17:00,
2013-05-09 16:22:00,84.2,34.6,29.89,West,270,6.0,12.0,17,0.00,,,0.00,657,WeatherHawk,2013-05-09 23:22:00,
2013-05-09 16:24:00,84.6,34.9,29.89,SW,217,6.0,12.0,17,0.00,,,0.00,647,WeatherHawk,2013-05-09 23:24:00,
2013-05-09 16:25:00,84.2,33.1,29.89,SW,223,4.0,12.0,16,0.00,,,0.00,645,WeatherHawk,2013-05-09 23:25:00,
2013-05-09 16:27:00,84.2,34.6,29.89,WSW,245,4.0,-999.0,17,0.00,,,0.00,644,WeatherHawk,2013-05-09 23:27:00,
2013-05-09 16:31:00,84.7,33.6,29.89,WSW,249,5.0,0.0,16,0.00,,,0.00,621,WeatherHawk,2013-05-09 23:31:00,
2013-05-09 16:32:00,84.7,33.6,29.89,WSW,249,5.0,0.0,16,0.00,,,0.00,621,WeatherHawk,2013-05-09 23:32:00,
2013-05-09 16:34:00,84.6,33.4,29.89,WSW,237,6.0,0.0,16,0.00,,,0.00,610,WeatherHawk,2013-05-09 23:34:00,
2013-05-09 16:36:00,84.4,33.3,29.89,WSW,249,6.0,0.0,16,0.00,,,0.00,603,WeatherHawk,2013-05-09 23:36:00,
2013-05-09 16:37:00,84.4,33.3,29.89,WSW,253,5.0,-999.0,16,0.00,,,0.00,598,WeatherHawk,2013-05-09 23:37:00,
2013-05-09 16:39:00,84.4,33.3,29.88,West,259,8.0,0.0,16,0.00,,,0.00,588,WeatherHawk,2013-05-09 23:39:00,
2013-05-09 16:41:00,84.4,33.3,29.88,WNW,286,5.0,0.0,16,0.00,,,0.00,581,WeatherHawk,2013-05-09 23:41:00,
2013-05-09 16:42:00,84.4,33.3,29.88,WNW,286,5.0,0.0,16,0.00,,,0.00,581,WeatherHawk,2013-05-09 23:42:00,
2013-05-09 16:43:00,84.2,33.1,29.88,West,281,9.0,0.0,16,0.00,,,0.00,570,WeatherHawk,2013-05-09 23:43:00,
2013-05-09 16:45:00,83.8,32.8,29.88,WSW,258,6.0,0.0,16,0.00,,,0.00,561,WeatherHawk,2013-05-09 23:45:00,
2013-05-09 16:46:00,83.8,32.8,29.88,West,260,8.0,0.0,16,0.00,,,0.00,560,WeatherHawk,2013-05-09 23:46:00,
2013-05-09 16:47:00,84.0,34.5,29.88,West,263,9.0,0.0,17,0.00,,,0.00,556,WeatherHawk,2013-05-09 23:47:00,
2013-05-09 16:48:00,84.0,33.0,29.88,SW,232,8.0,0.0,16,0.00,,,0.00,550,WeatherHawk,2013-05-09 23:48:00,
2013-05-09 16:51:00,84.0,31.4,29.88,West,281,9.0,0.0,15,0.00,,,0.00,530,WeatherHawk,2013-05-09 23:51:00,
2013-05-09 16:52:00,84.0,31.4,29.88,West,281,9.0,-999.0,15,0.00,,,0.00,530,WeatherHawk,2013-05-09 23:52:00,
2013-05-09 16:57:00,84.4,34.8,29.88,SW,234,8.0,-999.0,17,0.00,,,0.00,514,WeatherHawk,2013-05-09 23:57:00,
2013-05-09 16:58:00,84.2,33.1,29.88,WSW,244,9.0,0.0,16,0.00,,,0.00,505,WeatherHawk,2013-05-09 23:58:00,
2013-05-09 17:00:00,84.0,33.0,29.88,SW,230,7.0,0.0,16,0.00,,,0.00,500,WeatherHawk,2013-05-10 00:00:00,
2013-05-09 17:01:00,84.0,33.0,29.88,WSW,245,6.0,0.0,16,0.00,,,0.00,494,WeatherHawk,2013-05-10 00:01:00,
2013-05-09 17:06:00,84.2,33.1,29.88,SW,231,8.0,0.0,16,0.00,,,0.00,473,WeatherHawk,2013-05-10 00:06:00,
2013-05-09 17:07:00,84.4,33.3,29.88,SW,221,7.0,0.0,16,0.00,,,0.00,467,WeatherHawk,2013-05-10 00:07:00,
2013-05-09 17:08:00,84.6,33.4,29.88,SW,219,7.0,0.0,16,0.00,,,0.00,465,WeatherHawk,2013-05-10 00:08:00,
2013-05-09 17:10:00,84.6,33.4,29.88,SSW,209,7.0,0.0,16,0.00,,,0.00,455,WeatherHawk,2013-05-10 00:10:00,
2013-05-09 17:12:00,84.2,33.1,29.88,SW,232,6.0,0.0,16,0.00,,,0.00,451,WeatherHawk,2013-05-10 00:12:00,
2013-05-09 17:13:00,84.2,33.1,29.88,WSW,243,5.0,0.0,16,0.00,,,0.00,446,WeatherHawk,2013-05-10 00:13:00,
2013-05-09 17:14:00,84.4,31.7,29.88,SW,236,8.0,0.0,15,0.00,,,0.00,443,WeatherHawk,2013-05-10 00:14:00,
2013-05-09 17:16:00,84.4,31.7,29.88,WSW,247,5.0,0.0,15,0.00,,,0.00,435,WeatherHawk,2013-05-10 00:16:00,
2013-05-09 17:19:00,84.4,31.7,29.88,WNW,287,9.0,0.0,15,0.00,,,0.00,424,WeatherHawk,2013-05-10 00:19:00,
2013-05-09 17:20:00,84.4,31.7,29.88,WNW,294,4.0,0.0,15,0.00,,,0.00,420,WeatherHawk,2013-05-10 00:20:00,
2013-05-09 17:22:00,84.2,31.5,29.88,WNW,301,7.0,0.0,15,0.00,,,0.00,411,WeatherHawk,2013-05-10 00:22:00,
2013-05-09 17:27:00,83.8,29.5,29.88,WSW,242,5.0,0.0,14,0.00,,,0.00,391,WeatherHawk,2013-05-10 00:27:00,
2013-05-09 17:30:00,84.2,29.8,29.88,WNW,290,7.0,0.0,14,0.00,,,0.00,375,WeatherHawk,2013-05-10 00:30:00,
2013-05-09 17:33:00,84.2,29.8,29.88,WNW,285,8.0,0.0,14,0.00,,,0.00,365,WeatherHawk,2013-05-10 00:33:00,
2013-05-09 17:36:00,84.0,31.4,29.87,West,272,10.0,0.0,15,0.00,,,0.00,351,WeatherHawk,2013-05-10 00:36:00,
2013-05-09 17:37:00,84.0,29.7,29.87,West,276,10.0,0.0,14,0.00,,,0.00,351,WeatherHawk,2013-05-10 00:37:00,
2013-05-09 17:40:00,83.8,31.2,29.87,West,259,5.0,0.0,15,0.00,,,0.00,338,WeatherHawk,2013-05-10 00:40:00,
2013-05-09 17:42:00,84.0,33.0,29.87,WSW,238,9.0,0.0,16,0.00,,,0.00,330,WeatherHawk,2013-05-10 00:42:00,
2013-05-09 17:43:00,84.0,34.5,29.87,WSW,243,8.0,0.0,17,0.00,,,0.00,327,WeatherHawk,2013-05-10 00:43:00,
2013-05-09 17:44:00,84.0,33.0,29.87,WSW,248,10.0,0.0,16,0.00,,,0.00,323,WeatherHawk,2013-05-10 00:44:00,
2013-05-09 17:47:00,84.0,34.5,29.87,WSW,257,6.0,0.0,17,0.00,,,0.00,314,WeatherHawk,2013-05-10 00:47:00,
2013-05-09 17:50:00,83.7,32.7,29.87,WSW,239,7.0,0.0,16,0.00,,,0.00,295,WeatherHawk,2013-05-10 00:50:00,
2013-05-09 17:52:00,83.5,32.5,29.87,West,271,7.0,0.0,16,0.00,,,0.00,288,WeatherHawk,2013-05-10 00:52:00,
2013-05-09 17:54:00,83.5,32.5,29.87,WSW,256,5.0,0.0,16,0.00,,,0.00,280,WeatherHawk,2013-05-10 00:54:00,
2013-05-09 17:57:00,83.8,35.8,29.87,WSW,246,12.0,0.0,18,0.00,,,0.00,273,WeatherHawk,2013-05-10 00:57:00,
2013-05-09 17:58:00,83.7,34.2,29.87,SW,236,9.0,0.0,17,0.00,,,0.00,262,WeatherHawk,2013-05-10 00:58:00,
2013-05-09 18:02:00,83.5,35.5,29.87,WSW,250,10.0,12.0,18,0.00,,,0.00,247,WeatherHawk,2013-05-10 01:02:00,
2013-05-09 18:05:00,83.5,35.5,29.87,WSW,255,9.0,12.0,18,0.00,,,0.00,234,WeatherHawk,2013-05-10 01:05:00,
2013-05-09 18:07:00,83.5,35.5,29.87,WSW,255,9.0,12.0,18,0.00,,,0.00,234,WeatherHawk,2013-05-10 01:07:00,
2013-05-09 18:08:00,83.5,36.9,29.87,SW,230,8.0,0.0,19,0.00,,,0.00,222,WeatherHawk,2013-05-10 01:08:00,
2013-05-09 18:12:00,83.5,36.9,29.87,WSW,248,8.0,0.0,19,0.00,,,0.00,211,WeatherHawk,2013-05-10 01:12:00,
2013-05-09 18:13:00,83.7,37.0,29.87,WSW,246,7.0,0.0,19,0.00,,,0.00,204,WeatherHawk,2013-05-10 01:13:00,
2013-05-09 18:14:00,83.5,35.5,29.87,WSW,241,9.0,0.0,18,0.00,,,0.00,198,WeatherHawk,2013-05-10 01:14:00,
2013-05-09 18:16:00,83.3,35.3,29.87,SW,236,8.0,0.0,18,0.00,,,0.00,191,WeatherHawk,2013-05-10 01:16:00,
2013-05-09 18:18:00,83.3,36.7,29.87,SW,232,6.0,0.0,19,0.00,,,0.00,185,WeatherHawk,2013-05-10 01:18:00,
2013-05-09 18:19:00,83.3,35.3,29.87,SW,225,7.0,0.0,18,0.00,,,0.00,180,WeatherHawk,2013-05-10 01:19:00,
2013-05-09 18:22:00,83.1,36.6,29.87,WSW,241,7.0,0.0,19,0.00,,,0.00,177,WeatherHawk,2013-05-10 01:22:00,
2013-05-09 18:24:00,83.1,36.6,29.87,SW,226,9.0,0.0,19,0.00,,,0.00,165,WeatherHawk,2013-05-10 01:24:00,
2013-05-09 18:26:00,83.1,36.6,29.87,WSW,238,8.0,0.0,19,0.00,,,0.00,163,WeatherHawk,2013-05-10 01:26:00,
2013-05-09 18:27:00,83.1,36.6,29.87,WSW,239,7.0,0.0,19,0.00,,,0.00,159,WeatherHawk,2013-05-10 01:27:00,
2013-05-09 18:32:00,82.9,35.1,29.87,SW,235,7.0,0.0,18,0.00,,,0.00,138,WeatherHawk,2013-05-10 01:32:00,
2013-05-09 18:33:00,82.9,36.4,29.88,SW,231,6.0,0.0,19,0.00,,,0.00,131,WeatherHawk,2013-05-10 01:33:00,
2013-05-09 18:35:00,82.9,36.4,29.88,WSW,244,7.0,0.0,19,0.00,,,0.00,127,WeatherHawk,2013-05-10 01:35:00,
2013-05-09 18:36:00,82.9,37.7,29.88,SW,234,7.0,0.0,20,0.00,,,0.00,119,WeatherHawk,2013-05-10 01:36:00,
2013-05-09 18:37:00,82.9,37.7,29.88,SW,234,7.0,0.0,20,0.00,,,0.00,119,WeatherHawk,2013-05-10 01:37:00,
2013-05-09 18:39:00,82.8,37.6,29.88,WSW,239,6.0,0.0,20,0.00,,,0.00,110,WeatherHawk,2013-05-10 01:39:00,
2013-05-09 18:44:00,82.6,37.4,29.88,WSW,247,6.0,0.0,20,0.00,,,0.00,94,WeatherHawk,2013-05-10 01:44:00,
2013-05-09 18:46:00,82.6,38.7,29.88,WSW,246,6.0,0.0,21,0.00,,,0.00,80,WeatherHawk,2013-05-10 01:46:00,
2013-05-09 18:47:00,82.6,38.7,29.88,WSW,242,6.0,0.0,21,0.00,,,0.00,50,WeatherHawk,2013-05-10 01:47:00,
2013-05-09 18:50:00,82.4,38.5,29.88,WSW,244,6.0,0.0,21,0.00,,,0.00,31,WeatherHawk,2013-05-10 01:50:00,
2013-05-09 18:52:00,82.2,38.4,29.88,WSW,238,5.0,0.0,21,0.00,,,0.00,25,WeatherHawk,2013-05-10 01:52:00,
2013-05-09 18:56:00,82.0,38.2,29.88,SW,233,5.0,0.0,21,0.00,,,0.00,21,WeatherHawk,2013-05-10 01:56:00,
2013-05-09 18:57:00,82.0,38.2,29.88,SW,233,5.0,0.0,21,0.00,,,0.00,21,WeatherHawk,2013-05-10 01:57:00,
2013-05-09 18:58:00,81.9,38.1,29.88,WSW,239,5.0,0.0,21,0.00,,,0.00,20,WeatherHawk,2013-05-10 01:58:00,
2013-05-09 18:59:00,81.9,38.1,29.88,SW,236,6.0,0.0,21,0.00,,,0.00,18,WeatherHawk,2013-05-10 01:59:00,
2013-05-09 19:00:00,81.7,37.9,29.88,WSW,239,6.0,0.0,21,0.00,,,0.00,17,WeatherHawk,2013-05-10 02:00:00,
2013-05-09 19:02:00,81.7,39.1,29.88,WSW,245,6.0,0.0,22,0.00,,,0.00,17,WeatherHawk,2013-05-10 02:02:00,
2013-05-09 19:03:00,81.7,39.1,29.88,SW,232,5.0,0.0,22,0.00,,,0.00,15,WeatherHawk,2013-05-10 02:03:00,
2013-05-09 19:07:00,81.5,39.0,29.88,WSW,239,6.0,0.0,22,0.00,,,0.00,15,WeatherHawk,2013-05-10 02:07:00,
2013-05-09 19:10:00,81.3,38.8,29.88,SW,230,4.0,0.0,22,0.00,,,0.00,13,WeatherHawk,2013-05-10 02:10:00,
2013-05-09 19:11:00,81.3,37.6,29.88,SW,233,6.0,0.0,21,0.00,,,0.00,12,WeatherHawk,2013-05-10 02:11:00,
2013-05-09 19:12:00,81.3,37.6,29.88,SW,233,6.0,0.0,21,0.00,,,0.00,12,WeatherHawk,2013-05-10 02:12:00,
2013-05-09 19:16:00,81.1,37.5,29.88,SW,230,4.0,0.0,21,0.00,,,0.00,8,WeatherHawk,2013-05-10 02:16:00,
2013-05-09 19:17:00,81.1,37.5,29.88,SW,230,4.0,0.0,21,0.00,,,0.00,8,WeatherHawk,2013-05-10 02:17:00,
2013-05-09 19:20:00,81.0,37.3,29.88,SW,230,4.0,0.0,21,0.00,,,0.00,3,WeatherHawk,2013-05-10 02:20:00,
2013-05-09 19:22:00,81.0,37.3,29.88,SW,232,4.0,-999.0,21,0.00,,,0.00,2,WeatherHawk,2013-05-10 02:22:00,
2013-05-09 19:25:00,80.8,37.2,29.88,SW,227,4.0,0.0,21,0.00,,,0.00,3,WeatherHawk,2013-05-10 02:25:00,
2013-05-09 19:27:00,80.8,38.4,29.88,SW,230,4.0,0.0,22,0.00,,,0.00,2,WeatherHawk,2013-05-10 02:27:00,
2013-05-09 19:28:00,80.6,38.2,29.88,SW,231,4.0,0.0,22,0.00,,,0.00,2,WeatherHawk,2013-05-10 02:28:00,
2013-05-09 19:32:00,80.4,38.1,29.88,SW,231,3.0,0.0,22,0.00,,,0.00,2,WeatherHawk,2013-05-10 02:32:00,
2013-05-09 19:34:00,80.2,37.9,29.88,SW,232,4.0,0.0,22,0.00,,,0.00,0,WeatherHawk,2013-05-10 02:34:00,
2013-05-09 19:37:00,80.2,37.9,29.88,SW,231,4.0,0.0,22,0.00,,,0.00,2,WeatherHawk,2013-05-10 02:37:00,
2013-05-09 19:38:00,80.1,37.8,29.89,SW,228,4.0,0.0,22,0.00,,,0.00,0,WeatherHawk,2013-05-10 02:38:00,
2013-05-09 19:42:00,79.9,37.6,29.89,SW,216,4.0,0.0,22,0.00,,,0.00,0,WeatherHawk,2013-05-10 02:42:00,
2013-05-09 19:44:00,79.7,39.7,29.89,SW,220,4.0,4.0,24,0.00,,,0.00,0,WeatherHawk,2013-05-10 02:44:00,
2013-05-09 19:45:00,79.5,38.5,29.89,SW,224,3.0,4.0,23,0.00,,,0.00,0,WeatherHawk,2013-05-10 02:45:00,
2013-05-09 19:47:00,79.5,38.5,29.89,SW,219,3.0,4.0,23,0.00,,,0.00,0,WeatherHawk,2013-05-10 02:47:00,
2013-05-09 19:51:00,79.3,38.3,29.89,SSW,212,4.0,0.0,23,0.00,,,0.00,0,WeatherHawk,2013-05-10 02:51:00,
2013-05-09 19:52:00,79.3,38.3,29.89,SSW,212,4.0,-999.0,23,0.00,,,0.00,0,WeatherHawk,2013-05-10 02:52:00,
2013-05-09 19:53:00,79.3,40.4,29.89,South,190,3.0,0.0,25,0.00,,,0.00,0,WeatherHawk,2013-05-10 02:53:00,
2013-05-09 19:54:00,79.2,40.3,29.89,SSW,201,3.0,0.0,25,0.00,,,0.00,0,WeatherHawk,2013-05-10 02:54:00,
2013-05-09 19:57:00,79.2,40.3,29.89,SSW,209,4.0,0.0,25,0.00,,,0.00,0,WeatherHawk,2013-05-10 02:57:00,
2013-05-09 20:00:00,79.0,38.0,29.89,SSW,210,3.0,0.0,23,0.00,,,0.00,1,WeatherHawk,2013-05-10 03:00:00,
2013-05-09 20:01:00,79.0,38.0,29.89,SSW,207,3.0,0.0,23,0.00,,,0.00,0,WeatherHawk,2013-05-10 03:01:00,
2013-05-09 20:02:00,79.0,38.0,29.89,SSW,207,3.0,0.0,23,0.00,,,0.00,0,WeatherHawk,2013-05-10 03:02:00,
2013-05-09 20:07:00,79.0,38.0,29.89,SSW,195,3.0,0.0,23,0.00,,,0.00,0,WeatherHawk,2013-05-10 03:07:00,
2013-05-09 20:09:00,78.8,36.7,29.89,South,187,4.0,0.0,22,0.00,,,0.00,0,WeatherHawk,2013-05-10 03:09:00,
2013-05-09 20:12:00,78.8,37.9,29.89,South,189,4.0,-999.0,23,0.00,,,0.00,0,WeatherHawk,2013-05-10 03:12:00,
2013-05-09 20:14:00,78.6,37.7,29.89,South,187,4.0,0.0,23,0.00,,,0.00,0,WeatherHawk,2013-05-10 03:14:00,
2013-05-09 20:15:00,78.8,37.9,29.89,South,182,3.0,0.0,23,0.00,,,0.00,0,WeatherHawk,2013-05-10 03:15:00,
2013-05-09 20:17:00,78.6,37.7,29.89,South,181,3.0,-999.0,23,0.00,,,0.00,1,WeatherHawk,2013-05-10 03:17:00,
2013-05-09 20:19:00,78.6,37.7,29.89,South,186,3.0,0.0,23,0.00,,,0.00,0,WeatherHawk,2013-05-10 03:19:00,
2013-05-09 20:20:00,78.6,36.6,29.89,South,186,3.0,0.0,22,0.00,,,0.00,0,WeatherHawk,2013-05-10 03:20:00,
2013-05-09 20:22:00,78.8,36.7,29.89,South,190,3.0,0.0,22,0.00,,,0.00,0,WeatherHawk,2013-05-10 03:22:00,
2013-05-09 20:25:00,78.8,37.9,29.89,South,191,3.0,0.0,23,0.00,,,0.00,0,WeatherHawk,2013-05-10 03:25:00,
2013-05-09 20:26:00,78.8,37.9,29.89,SSW,198,3.0,0.0,23,0.00,,,0.00,0,WeatherHawk,2013-05-10 03:26:00,
2013-05-09 20:27:00,78.8,37.9,29.89,SSW,198,3.0,0.0,23,0.00,,,0.00,0,WeatherHawk,2013-05-10 03:27:00,
2013-05-09 20:28:00,78.6,37.7,29.90,SSW,201,3.0,0.0,23,0.00,,,0.00,0,WeatherHawk,2013-05-10 03:28:00,
2013-05-09 20:31:00,78.4,37.6,29.90,SSW,201,2.0,0.0,23,0.00,,,0.00,0,WeatherHawk,2013-05-10 03:31:00,
2013-05-09 20:32:00,78.4,37.6,29.90,SSW,201,2.0,-999.0,23,0.00,,,0.00,0,WeatherHawk,2013-05-10 03:32:00,
2013-05-09 20:36:00,78.1,37.3,29.90,South,188,3.0,0.0,23,0.00,,,0.00,0,WeatherHawk,2013-05-10 03:36:00,
2013-05-09 20:40:00,78.1,37.3,29.90,SSW,197,3.0,0.0,23,0.00,,,0.00,0,WeatherHawk,2013-05-10 03:40:00,
2013-05-09 20:41:00,78.1,37.3,29.90,SSW,206,3.0,0.0,23,0.00,,,0.00,0,WeatherHawk,2013-05-10 03:41:00,
2013-05-09 20:46:00,77.7,37.0,29.90,SW,229,6.0,0.0,23,0.00,,,0.00,0,WeatherHawk,2013-05-10 03:46:00,
2013-05-09 20:48:00,77.7,37.0,29.90,SW,227,6.0,0.0,23,0.00,,,0.00,1,WeatherHawk,2013-05-10 03:48:00,
2013-05-09 20:51:00,77.5,37.9,29.90,SW,231,6.0,0.0,24,0.00,,,0.00,0,WeatherHawk,2013-05-10 03:51:00,
2013-05-09 20:54:00,77.2,40.6,29.90,WSW,238,9.0,0.0,27,0.00,,,0.00,0,WeatherHawk,2013-05-10 03:54:00,
2013-05-09 20:56:00,77.2,40.6,29.90,WSW,238,9.0,-999.0,27,0.00,,,0.00,0,WeatherHawk,2013-05-10 03:56:00,
2013-05-09 20:57:00,76.5,40.9,29.90,SW,228,7.0,0.0,28,0.00,,,0.00,0,WeatherHawk,2013-05-10 03:57:00,
2013-05-09 20:58:00,76.1,41.5,29.91,SW,227,7.0,0.0,29,0.00,,,0.00,0,WeatherHawk,2013-05-10 03:58:00,
2013-05-09 21:01:00,75.6,42.8,29.91,SW,215,8.0,0.0,31,0.00,,,0.00,1,WeatherHawk,2013-05-10 04:01:00,
2013-05-09 21:04:00,74.8,43.8,29.91,SW,214,7.0,0.0,33,0.00,,,0.00,0,WeatherHawk,2013-05-10 04:04:00,
2013-05-09 21:06:00,74.5,43.5,29.91,SSW,213,8.0,0.0,33,0.00,,,0.00,0,WeatherHawk,2013-05-10 04:06:00,
2013-05-09 21:07:00,74.3,44.1,29.91,SW,220,8.0,9.0,34,0.00,,,0.00,0,WeatherHawk,2013-05-10 04:07:00,
2013-05-09 21:08:00,74.3,44.1,29.91,SW,227,6.0,0.0,34,0.00,,,0.00,0,WeatherHawk,2013-05-10 04:08:00,
2013-05-09 21:10:00,74.3,44.1,29.91,SW,235,8.0,0.0,34,0.00,,,0.00,0,WeatherHawk,2013-05-10 04:10:00,
2013-05-09 21:11:00,74.1,43.9,29.91,SW,229,8.0,0.0,34,0.00,,,0.00,0,WeatherHawk,2013-05-10 04:11:00,
2013-05-09 21:16:00,73.9,44.5,29.91,SSW,209,8.0,0.0,35,0.00,,,0.00,0,WeatherHawk,2013-05-10 04:16:00,
2013-05-09 21:17:00,73.9,44.5,29.91,SSW,209,8.0,0.0,35,0.00,,,0.00,0,WeatherHawk,2013-05-10 04:17:00,
2013-05-09 21:18:00,73.6,45.0,29.91,SW,218,8.0,0.0,36,0.00,,,0.00,0,WeatherHawk,2013-05-10 04:18:00,
2013-05-09 21:20:00,72.9,45.8,29.92,SSW,211,8.0,0.0,38,0.00,,,0.00,0,WeatherHawk,2013-05-10 04:20:00,
2013-05-09 21:22:00,72.7,45.6,29.92,SSW,209,7.0,0.0,38,0.00,,,0.00,0,WeatherHawk,2013-05-10 04:22:00,
2013-05-09 21:26:00,73.0,45.2,29.92,SW,223,6.0,0.0,37,0.00,,,0.00,0,WeatherHawk,2013-05-10 04:26:00,
2013-05-09 21:27:00,73.2,45.4,29.92,SW,227,6.0,0.0,37,0.00,,,0.00,0,WeatherHawk,2013-05-10 04:27:00,
2013-05-09 21:28:00,73.2,45.4,29.92,SW,224,6.0,0.0,37,0.00,,,0.00,0,WeatherHawk,2013-05-10 04:28:00,
2013-05-09 21:29:00,73.2,45.4,29.92,SW,218,6.0,0.0,37,0.00,,,0.00,0,WeatherHawk,2013-05-10 04:29:00,
2013-05-09 21:30:00,73.4,45.5,29.92,SW,215,6.0,0.0,37,0.00,,,0.00,0,WeatherHawk,2013-05-10 04:30:00,
2013-05-09 21:35:00,73.8,45.1,29.92,SSW,200,5.0,0.0,36,0.00,,,0.00,0,WeatherHawk,2013-05-10 04:35:00,
2013-05-09 21:36:00,73.8,45.1,29.92,SSW,196,5.0,0.0,36,0.00,,,0.00,0,WeatherHawk,2013-05-10 04:36:00,
2013-05-09 21:37:00,73.8,45.1,29.92,SSW,193,5.0,0.0,36,0.00,,,0.00,2,WeatherHawk,2013-05-10 04:37:00,
2013-05-09 21:42:00,73.2,45.4,29.92,South,188,5.0,0.0,37,0.00,,,0.00,1,WeatherHawk,2013-05-10 04:42:00,
2013-05-09 21:47:00,73.2,45.4,29.92,South,188,5.0,0.0,37,0.00,,,0.00,1,WeatherHawk,2013-05-10 04:47:00,
2013-05-09 21:48:00,73.4,44.8,29.92,South,188,6.0,0.0,36,0.00,,,0.00,1,WeatherHawk,2013-05-10 04:48:00,
2013-05-09 21:52:00,73.4,44.1,29.92,SSW,196,3.0,0.0,35,0.00,,,0.00,0,WeatherHawk,2013-05-10 04:52:00,
2013-05-09 21:56:00,73.6,44.2,29.92,South,190,5.0,0.0,35,0.00,,,0.00,0,WeatherHawk,2013-05-10 04:56:00,
2013-05-09 21:57:00,73.6,43.5,29.92,South,189,5.0,0.0,34,0.00,,,0.00,0,WeatherHawk,2013-05-10 04:57:00,
2013-05-09 22:02:00,73.8,42.8,29.92,South,191,6.0,0.0,33,0.00,,,0.00,0,WeatherHawk,2013-05-10 05:02:00,
2013-05-09 22:03:00,73.9,43.0,29.92,South,188,6.0,0.0,33,0.00,,,0.00,0,WeatherHawk,2013-05-10 05:03:00,
2013-05-09 22:06:00,73.9,43.0,29.92,SSW,198,4.0,0.0,33,0.00,,,0.00,0,WeatherHawk,2013-05-10 05:06:00,
2013-05-09 22:09:00,73.8,42.8,29.93,SW,214,5.0,0.0,33,0.00,,,0.00,0,WeatherHawk,2013-05-10 05:09:00,
2013-05-09 22:10:00,73.8,42.0,29.93,SW,219,6.0,0.0,32,0.00,,,0.00,0,WeatherHawk,2013-05-10 05:10:00,
2013-05-09 22:12:00,73.8,42.0,29.93,SW,234,7.0,7.0,32,0.00,,,0.00,0,WeatherHawk,2013-05-10 05:12:00,
2013-05-09 22:16:00,73.8,43.6,29.93,WSW,246,6.0,6.0,34,0.00,,,0.00,0,WeatherHawk,2013-05-10 05:16:00,
2013-05-09 22:17:00,73.6,43.5,29.93,WSW,253,6.0,6.0,34,0.00,,,0.00,0,WeatherHawk,2013-05-10 05:17:00,
2013-05-09 22:18:00,73.4,45.5,29.93,West,264,7.0,0.0,37,0.00,,,0.00,0,WeatherHawk,2013-05-10 05:18:00,
2013-05-09 22:22:00,70.2,48.4,29.94,WNW,284,9.0,-999.0,46,0.00,,,0.00,0,WeatherHawk,2013-05-10 05:22:00,
2013-05-09 22:23:00,68.9,48.4,29.93,WSW,255,5.0,8.0,48,0.00,,,0.00,0,WeatherHawk,2013-05-10 05:23:00,
2013-05-09 22:25:00,68.4,48.4,29.93,WSW,251,5.0,8.0,49,0.00,,,0.00,0,WeatherHawk,2013-05-10 05:25:00,
2013-05-09 22:31:00,68.2,47.7,29.93,WSW,245,3.0,0.0,48,0.00,,,0.00,0,WeatherHawk,2013-05-10 05:31:00,
2013-05-09 22:32:00,68.2,47.7,29.93,WSW,247,4.0,0.0,48,0.00,,,0.00,0,WeatherHawk,2013-05-10 05:32:00,
2013-05-09 22:33:00,68.5,47.5,29.94,West,276,4.0,0.0,47,0.00,,,0.00,0,WeatherHawk,2013-05-10 05:33:00,
2013-05-09 22:37:00,68.5,49.2,29.94,NW,308,6.0,0.0,50,0.00,,,0.00,0,WeatherHawk,2013-05-10 05:37:00,
2013-05-09 22:40:00,67.6,48.9,29.93,SW,233,3.0,0.0,51,0.00,,,0.00,0,WeatherHawk,2013-05-10 05:40:00,
2013-05-09 22:42:00,67.6,48.3,29.93,WSW,242,4.0,0.0,50,0.00,,,0.00,0,WeatherHawk,2013-05-10 05:42:00,
2013-05-09 22:43:00,67.6,47.8,29.93,WSW,251,5.0,0.0,49,0.00,,,0.00,0,WeatherHawk,2013-05-10 05:43:00,
2013-05-09 22:44:00,67.8,47.4,29.93,WSW,246,4.0,0.0,48,0.00,,,0.00,0,WeatherHawk,2013-05-10 05:44:00,
2013-05-09 22:47:00,68.2,47.7,29.93,WSW,252,4.0,0.0,48,0.00,,,0.00,0,WeatherHawk,2013-05-10 05:47:00,
2013-05-09 22:49:00,68.4,47.9,29.93,WSW,241,3.0,0.0,48,0.00,,,0.00,0,WeatherHawk,2013-05-10 05:49:00,
2013-05-09 22:50:00,68.4,47.3,29.93,WSW,240,3.0,0.0,47,0.00,,,0.00,0,WeatherHawk,2013-05-10 05:50:00,
2013-05-09 22:52:00,68.5,46.9,29.93,WSW,239,3.0,0.0,46,0.00,,,0.00,0,WeatherHawk,2013-05-10 05:52:00,
2013-05-09 22:54:00,68.7,47.1,29.93,SW,232,4.0,0.0,46,0.00,,,0.00,0,WeatherHawk,2013-05-10 05:54:00,
2013-05-09 22:56:00,68.9,47.3,29.93,SW,231,6.0,0.0,46,0.00,,,0.00,0,WeatherHawk,2013-05-10 05:56:00,
2013-05-09 22:57:00,68.9,47.3,29.93,SW,231,6.0,0.0,46,0.00,,,0.00,0,WeatherHawk,2013-05-10 05:57:00,
2013-05-09 23:01:00,69.1,46.8,29.94,SW,235,6.0,6.0,45,0.00,,,0.00,0,WeatherHawk,2013-05-10 06:01:00,
2013-05-09 23:02:00,69.3,47.0,29.94,SW,231,6.0,-999.0,45,0.00,,,0.00,0,WeatherHawk,2013-05-10 06:02:00,
2013-05-09 23:03:00,69.3,47.0,29.94,SW,230,6.0,6.0,45,0.00,,,0.00,0,WeatherHawk,2013-05-10 06:03:00,
2013-05-09 23:06:00,69.1,46.8,29.94,WSW,241,6.0,6.0,45,0.00,,,0.00,0,WeatherHawk,2013-05-10 06:06:00,
2013-05-09 23:07:00,69.1,46.8,29.94,SW,235,5.0,6.0,45,0.00,,,0.00,0,WeatherHawk,2013-05-10 06:07:00,
2013-05-09 23:12:00,69.1,46.8,29.94,West,260,6.0,0.0,45,0.00,,,0.00,0,WeatherHawk,2013-05-10 06:12:00,
2013-05-09 23:15:00,68.7,47.1,29.94,WSW,249,5.0,0.0,46,0.00,,,0.00,0,WeatherHawk,2013-05-10 06:15:00,
2013-05-09 23:16:00,68.5,46.9,29.94,West,265,5.0,0.0,46,0.00,,,0.00,0,WeatherHawk,2013-05-10 06:16:00,
2013-05-09 23:22:00,68.0,47.6,29.94,West,281,4.0,0.0,48,0.00,,,0.00,0,WeatherHawk,2013-05-10 06:22:00,
2013-05-09 23:23:00,67.8,47.4,29.94,West,281,3.0,0.0,48,0.00,,,0.00,1,WeatherHawk,2013-05-10 06:23:00,
2013-05-09 23:27:00,67.5,47.6,29.94,West,268,2.0,0.0,49,0.00,,,0.00,0,WeatherHawk,2013-05-10 06:27:00,
2013-05-09 23:30:00,67.5,47.6,29.94,WSW,258,2.0,0.0,49,0.00,,,0.00,0,WeatherHawk,2013-05-10 06:30:00,
2013-05-09 23:31:00,67.3,47.5,29.94,West,270,3.0,0.0,49,0.00,,,0.00,0,WeatherHawk,2013-05-10 06:31:00,
2013-05-09 23:32:00,67.3,47.5,29.94,West,269,2.0,-999.0,49,0.00,,,0.00,0,WeatherHawk,2013-05-10 06:32:00,
2013-05-09 23:35:00,67.3,47.5,29.94,WNW,285,2.0,0.0,49,0.00,,,0.00,0,WeatherHawk,2013-05-10 06:35:00,
2013-05-09 23:36:00,67.3,48.0,29.94,WNW,290,3.0,0.0,50,0.00,,,0.00,0,WeatherHawk,2013-05-10 06:36:00,
2013-05-09 23:37:00,67.3,48.0,29.94,WNW,290,3.0,0.0,50,0.00,,,0.00,0,WeatherHawk,2013-05-10 06:37:00,
2013-05-09 23:39:00,67.3,47.5,29.94,West,278,2.0,0.0,49,0.00,,,0.00,0,WeatherHawk,2013-05-10 06:39:00,
2013-05-09 23:42:00,67.3,47.5,29.94,NW,304,3.0,3.0,49,0.00,,,0.00,0,WeatherHawk,2013-05-10 06:42:00,
2013-05-09 23:43:00,67.3,47.5,29.94,WNW,292,3.0,3.0,49,0.00,,,0.00,0,WeatherHawk,2013-05-10 06:43:00,
2013-05-09 23:45:00,67.3,47.5,29.94,West,279,3.0,3.0,49,0.00,,,0.00,0,WeatherHawk,2013-05-10 06:45:00,
2013-05-09 23:47:00,67.3,47.5,29.94,West,279,3.0,3.0,49,0.00,,,0.00,0,WeatherHawk,2013-05-10 06:47:00,
2013-05-09 23:49:00,67.3,47.5,29.94,SW,227,3.0,0.0,49,0.00,,,0.00,0,WeatherHawk,2013-05-10 06:49:00,
2013-05-09 23:52:00,67.5,47.6,29.94,West,269,4.0,-999.0,49,0.00,,,0.00,0,WeatherHawk,2013-05-10 06:52:00,
2013-05-09 23:55:00,67.5,47.6,29.94,WSW,242,3.0,0.0,49,0.00,,,0.00,0,WeatherHawk,2013-05-10 06:55:00,
2013-05-09 23:57:00,67.5,47.6,29.94,SW,232,2.0,0.0,49,0.00,,,0.00,0,WeatherHawk,2013-05-10 06:57:00,
2013-05-09 23:59:00,67.5,47.6,29.94,WSW,243,3.0,0.0,49,0.00,,,0.00,0,WeatherHawk,2013-05-10 06:59:00,